Time,TemperatureF,DewpointF,PressureIn,WindDirection,WindDirectionDegrees,WindSpeedMPH,WindSpeedGustMPH,Humidity,HourlyPrecipIn,Conditions,Clouds,dailyrainin,SoftwareType,DateUTC
2013-09-12 00:12:00,75.7,67.6,29.79,ESE,113,0.0,0.0,76,0.00,,,0.00,WUHU216HW,2013-09-12 04:12:00,
2013-09-12 00:18:00,75.7,67.6,29.79,ESE,113,0.0,0.0,76,0.00,,,0.00,WUHU216HW,2013-09-12 04:18:00,
2013-09-12 00:23:00,75.5,67.4,29.79,ESE,113,0.0,0.0,76,0.00,,,0.00,WUHU216HW,2013-09-12 04:23:00,
2013-09-12 00:28:00,71.0,56.5,29.73,North,0,0.0,0.0,60,0.00,,,0.00,WUHU216HW,2013-09-12 04:28:00,
2013-09-12 00:29:00,75.3,67.3,29.79,ESE,113,0.0,0.0,77,0.00,,,0.00,WUHU216HW,2013-09-12 04:29:00,
2013-09-12 00:30:00,71.0,56.5,29.73,NW,315,0.0,0.0,59,0.00,,,0.00,WUHU216HW,2013-09-12 04:30:00,
2013-09-12 00:31:00,70.8,56.3,29.73,NW,315,0.0,0.0,60,0.00,,,0.00,WUHU216HW,2013-09-12 04:31:00,
2013-09-12 00:32:00,70.8,56.3,29.73,NW,315,0.0,0.0,60,0.00,,,0.00,WUHU216HW,2013-09-12 04:32:00,
2013-09-12 00:33:00,70.8,56.3,29.73,NW,315,0.0,0.0,60,0.00,,,0.00,WUHU216HW,2013-09-12 04:33:00,
2013-09-12 00:34:00,75.3,67.3,29.79,ESE,113,0.0,0.0,76,0.00,,,0.00,WUHU216HW,2013-09-12 04:34:00,
2013-09-12 00:35:00,70.8,56.3,29.73,NW,315,0.0,0.0,60,0.00,,,0.00,WUHU216HW,2013-09-12 04:35:00,
2013-09-12 00:37:00,70.8,56.3,29.73,East,90,0.0,0.0,61,0.00,,,0.00,WUHU216HW,2013-09-12 04:37:00,
2013-09-12 00:38:00,70.8,56.3,29.73,ENE,68,0.0,0.0,61,0.00,,,0.00,WUHU216HW,2013-09-12 04:38:00,
2013-09-12 00:39:00,75.2,67.1,29.79,ESE,113,0.0,0.0,76,0.00,,,0.00,WUHU216HW,2013-09-12 04:39:00,
2013-09-12 00:40:00,70.8,56.3,29.73,ENE,68,0.0,0.0,62,0.00,,,0.00,WUHU216HW,2013-09-12 04:40:00,
2013-09-12 00:41:00,70.8,56.3,29.73,ENE,68,0.0,0.0,62,0.00,,,0.00,WUHU216HW,2013-09-12 04:41:00,
2013-09-12 00:42:00,70.8,56.3,29.74,NE,45,0.0,0.0,59,0.00,,,0.00,WUHU216HW,2013-09-12 04:42:00,
2013-09-12 00:43:00,70.8,56.3,29.74,NE,45,0.0,0.0,59,0.00,,,0.00,WUHU216HW,2013-09-12 04:43:00,
2013-09-12 00:44:00,75.0,66.9,29.79,ESE,113,0.0,0.0,77,0.00,,,0.00,WUHU216HW,2013-09-12 04:44:00,
2013-09-12 00:46:00,70.7,56.6,29.74,North,0,0.0,0.0,61,0.00,,,0.00,WUHU216HW,2013-09-12 04:46:00,
2013-09-12 00:49:00,75.0,66.9,29.79,ESE,113,0.0,0.0,77,0.00,,,0.00,WUHU216HW,2013-09-12 04:49:00,
2013-09-12 00:54:00,75.0,66.9,29.78,ESE,113,0.0,0.0,77,0.00,,,0.00,WUHU216HW,2013-09-12 04:54:00,
2013-09-12 01:00:00,75.0,66.9,29.79,ESE,113,0.0,0.0,77,0.00,,,0.00,WUHU216HW,2013-09-12 05:00:00,
2013-09-12 01:03:00,70.8,56.7,29.73,WNW,293,0.0,0.0,61,0.00,,,0.00,WUHU216HW,2013-09-12 05:03:00,
2013-09-12 01:05:00,75.0,66.9,29.79,ESE,113,0.0,0.0,77,0.00,,,0.00,WUHU216HW,2013-09-12 05:05:00,
2013-09-12 01:07:00,70.8,56.7,29.73,North,0,0.0,0.0,61,0.00,,,0.00,WUHU216HW,2013-09-12 05:07:00,
2013-09-12 01:08:00,70.8,56.7,29.74,NW,315,0.0,0.0,59,0.00,,,0.00,WUHU216HW,2013-09-12 05:08:00,
2013-09-12 01:09:00,70.8,56.7,29.73,NW,315,0.0,0.0,59,0.00,,,0.00,WUHU216HW,2013-09-12 05:09:00,
2013-09-12 01:10:00,74.8,67.5,29.78,ESE,113,0.0,0.0,78,0.00,,,0.00,WUHU216HW,2013-09-12 05:10:00,
2013-09-12 01:11:00,71.0,56.0,29.73,ENE,68,0.0,0.0,59,0.00,,,0.00,WUHU216HW,2013-09-12 05:11:00,
2013-09-12 01:12:00,70.8,55.8,29.73,NNE,23,0.0,0.0,59,0.00,,,0.00,WUHU216HW,2013-09-12 05:12:00,
2013-09-12 01:13:00,70.8,55.8,29.73,NNE,23,0.0,0.0,59,0.00,,,0.00,WUHU216HW,2013-09-12 05:13:00,
2013-09-12 01:14:00,70.8,55.8,29.73,NNE,23,0.0,0.0,59,0.00,,,0.00,WUHU216HW,2013-09-12 05:14:00,
2013-09-12 01:15:00,74.8,67.5,29.77,ESE,113,0.0,0.0,78,0.00,,,0.00,WUHU216HW,2013-09-12 05:15:00,
2013-09-12 01:16:00,70.8,55.8,29.73,NW,315,0.0,0.0,58,0.00,,,0.00,WUHU216HW,2013-09-12 05:16:00,
2013-09-12 01:17:00,70.8,55.8,29.73,NW,315,0.0,0.0,58,0.00,,,0.00,WUHU216HW,2013-09-12 05:17:00,
2013-09-12 01:19:00,70.8,55.8,29.73,WNW,293,0.0,0.0,58,0.00,,,0.00,WUHU216HW,2013-09-12 05:19:00,
2013-09-12 01:20:00,74.8,67.5,29.77,ESE,113,0.0,0.0,78,0.00,,,0.00,WUHU216HW,2013-09-12 05:20:00,
2013-09-12 01:22:00,70.8,55.8,29.74,WNW,293,0.0,0.0,59,0.00,,,0.00,WUHU216HW,2013-09-12 05:22:00,
2013-09-12 01:23:00,71.0,56.5,29.74,WNW,293,0.0,0.0,60,0.00,,,0.00,WUHU216HW,2013-09-12 05:23:00,
2013-09-12 01:25:00,74.8,67.5,29.77,ESE,113,0.0,0.0,79,0.00,,,0.00,WUHU216HW,2013-09-12 05:25:00,
2013-09-12 01:30:00,74.6,67.7,29.77,ESE,113,0.0,0.0,79,0.00,,,0.00,WUHU216HW,2013-09-12 05:30:00,
2013-09-12 01:35:00,74.4,67.6,29.77,ESE,113,0.0,0.0,79,0.00,,,0.00,WUHU216HW,2013-09-12 05:35:00,
2013-09-12 01:40:00,74.4,67.6,29.77,ESE,113,0.0,0.0,79,0.00,,,0.00,WUHU216HW,2013-09-12 05:40:00,
2013-09-12 01:46:00,74.4,67.6,29.77,ESE,113,0.0,0.0,79,0.00,,,0.00,WUHU216HW,2013-09-12 05:46:00,
2013-09-12 01:47:00,70.8,55.3,29.73,WNW,293,0.0,0.0,59,0.00,,,0.00,WUHU216HW,2013-09-12 05:47:00,
2013-09-12 01:48:00,70.7,55.7,29.74,WNW,293,0.0,0.0,59,0.00,,,0.00,WUHU216HW,2013-09-12 05:48:00,
2013-09-12 01:49:00,70.7,55.7,29.74,WNW,293,0.0,0.0,59,0.00,,,0.00,WUHU216HW,2013-09-12 05:49:00,
2013-09-12 01:51:00,74.3,67.4,29.77,ESE,113,0.0,0.0,79,0.00,,,0.00,WUHU216HW,2013-09-12 05:51:00,
2013-09-12 01:52:00,70.7,55.7,29.74,WNW,293,0.0,0.0,59,0.00,,,0.00,WUHU216HW,2013-09-12 05:52:00,
2013-09-12 01:53:00,70.5,55.5,29.73,ENE,68,0.0,0.0,59,0.00,,,0.00,WUHU216HW,2013-09-12 05:53:00,
2013-09-12 01:54:00,70.5,55.5,29.74,ENE,68,0.0,0.0,59,0.00,,,0.00,WUHU216HW,2013-09-12 05:54:00,
2013-09-12 01:55:00,70.5,55.5,29.74,ENE,68,0.0,0.0,59,0.00,,,0.00,WUHU216HW,2013-09-12 05:55:00,
2013-09-12 01:56:00,74.3,67.4,29.76,ESE,113,0.0,0.0,80,0.00,,,0.00,WUHU216HW,2013-09-12 05:56:00,
2013-09-12 01:57:00,70.5,55.5,29.74,ENE,68,0.0,0.0,59,0.00,,,0.00,WUHU216HW,2013-09-12 05:57:00,
2013-09-12 01:59:00,70.5,55.5,29.73,ENE,68,0.0,0.0,59,0.00,,,0.00,WUHU216HW,2013-09-12 05:59:00,
2013-09-12 02:00:00,70.5,55.5,29.73,ENE,68,0.0,0.0,59,0.00,,,0.00,WUHU216HW,2013-09-12 06:00:00,
2013-09-12 02:01:00,74.1,67.6,29.77,ESE,113,0.0,0.0,80,0.00,,,0.00,WUHU216HW,2013-09-12 06:01:00,
2013-09-12 02:02:00,70.3,54.8,29.73,ENE,68,0.0,0.0,58,0.00,,,0.00,WUHU216HW,2013-09-12 06:02:00,
2013-09-12 02:07:00,74.1,67.6,29.77,ESE,113,0.0,0.0,80,0.00,,,0.00,WUHU216HW,2013-09-12 06:07:00,
2013-09-12 02:12:00,73.9,67.4,29.76,ESE,113,0.0,0.0,80,0.00,,,0.00,WUHU216HW,2013-09-12 06:12:00,
2013-09-12 02:17:00,73.9,67.4,29.76,ESE,113,0.0,0.0,81,0.00,,,0.00,WUHU216HW,2013-09-12 06:17:00,
2013-09-12 02:22:00,73.7,67.6,29.76,ESE,113,0.0,0.0,81,0.00,,,0.00,WUHU216HW,2013-09-12 06:22:00,
2013-09-12 02:27:00,73.5,67.4,29.76,ESE,113,0.0,0.0,81,0.00,,,0.00,WUHU216HW,2013-09-12 06:27:00,
2013-09-12 02:32:00,73.5,67.4,29.76,ESE,113,0.0,0.0,81,0.00,,,0.00,WUHU216HW,2013-09-12 06:32:00,
2013-09-12 02:37:00,69.6,55.2,29.74,ENE,68,0.0,0.0,61,0.00,,,0.00,WUHU216HW,2013-09-12 06:37:00,
2013-09-12 02:38:00,73.4,67.6,29.76,ESE,113,0.0,0.0,82,0.00,,,0.00,WUHU216HW,2013-09-12 06:38:00,
2013-09-12 02:40:00,69.4,55.4,29.74,ENE,68,0.0,0.0,61,0.00,,,0.00,WUHU216HW,2013-09-12 06:40:00,
2013-09-12 02:42:00,69.4,55.4,29.74,ENE,68,0.0,0.0,62,0.00,,,0.00,WUHU216HW,2013-09-12 06:42:00,
2013-09-12 02:43:00,73.2,67.4,29.76,ESE,113,0.0,0.0,82,0.00,,,0.00,WUHU216HW,2013-09-12 06:43:00,
2013-09-12 02:44:00,69.4,55.4,29.74,ENE,68,0.0,0.0,62,0.00,,,0.00,WUHU216HW,2013-09-12 06:44:00,
2013-09-12 02:46:00,69.0,55.9,29.74,ENE,68,0.0,0.0,63,0.00,,,0.00,WUHU216HW,2013-09-12 06:46:00,
2013-09-12 02:47:00,69.0,55.9,29.74,ENE,68,0.0,0.0,63,0.00,,,0.00,WUHU216HW,2013-09-12 06:47:00,
2013-09-12 02:48:00,73.2,67.4,29.76,ESE,113,0.0,0.0,82,0.00,,,0.00,WUHU216HW,2013-09-12 06:48:00,
2013-09-12 02:51:00,68.9,55.7,29.74,ENE,68,0.0,0.0,63,0.00,,,0.00,WUHU216HW,2013-09-12 06:51:00,
2013-09-12 02:53:00,73.2,67.4,29.76,ESE,113,0.0,0.0,82,0.00,,,0.00,WUHU216HW,2013-09-12 06:53:00,
2013-09-12 02:54:00,68.7,55.5,29.74,ENE,68,0.0,0.0,63,0.00,,,0.00,WUHU216HW,2013-09-12 06:54:00,
2013-09-12 02:55:00,68.7,55.5,29.74,ENE,68,0.0,0.0,63,0.00,,,0.00,WUHU216HW,2013-09-12 06:55:00,
2013-09-12 02:57:00,68.7,55.5,29.74,ENE,68,0.0,0.0,63,0.00,,,0.00,WUHU216HW,2013-09-12 06:57:00,
2013-09-12 02:58:00,73.0,67.2,29.76,ESE,113,0.0,0.0,82,0.00,,,0.00,WUHU216HW,2013-09-12 06:58:00,
2013-09-12 03:01:00,68.5,55.8,29.74,ENE,68,0.0,0.0,64,0.00,,,0.00,WUHU216HW,2013-09-12 07:01:00,
2013-09-12 03:03:00,73.0,67.2,29.76,ESE,113,0.0,0.0,83,0.00,,,0.00,WUHU216HW,2013-09-12 07:03:00,
2013-09-12 03:06:00,68.1,55.9,29.74,ENE,68,0.0,0.0,65,0.00,,,0.00,WUHU216HW,2013-09-12 07:06:00,
2013-09-12 03:09:00,73.0,67.2,29.76,ESE,113,0.0,0.0,83,0.00,,,0.00,WUHU216HW,2013-09-12 07:09:00,
2013-09-12 03:14:00,72.6,67.2,29.76,ESE,113,0.0,0.0,83,0.00,,,0.00,WUHU216HW,2013-09-12 07:14:00,
2013-09-12 03:16:00,67.6,55.8,29.74,ENE,68,0.0,0.0,66,0.00,,,0.00,WUHU216HW,2013-09-12 07:16:00,
2013-09-12 03:17:00,67.6,55.8,29.74,ENE,68,0.0,0.0,67,0.00,,,0.00,WUHU216HW,2013-09-12 07:17:00,
2013-09-12 03:18:00,67.6,55.8,29.74,ENE,68,0.0,0.0,67,0.00,,,0.00,WUHU216HW,2013-09-12 07:18:00,
2013-09-12 03:19:00,72.6,67.2,29.75,ESE,113,0.0,0.0,83,0.00,,,0.00,WUHU216HW,2013-09-12 07:19:00,
2013-09-12 03:20:00,67.6,55.8,29.74,ENE,68,0.0,0.0,67,0.00,,,0.00,WUHU216HW,2013-09-12 07:20:00,
2013-09-12 03:21:00,67.2,55.9,29.74,ENE,68,0.0,0.0,67,0.00,,,0.00,WUHU216HW,2013-09-12 07:21:00,
2013-09-12 03:22:00,67.2,55.9,29.74,ENE,68,0.0,0.0,67,0.00,,,0.00,WUHU216HW,2013-09-12 07:22:00,
2013-09-12 03:23:00,67.1,56.1,29.74,ENE,68,0.0,0.0,68,0.00,,,0.00,WUHU216HW,2013-09-12 07:23:00,
2013-09-12 03:24:00,72.6,67.2,29.75,ESE,113,0.0,0.0,83,0.00,,,0.00,WUHU216HW,2013-09-12 07:24:00,
2013-09-12 03:26:00,66.9,55.9,29.74,ENE,68,0.0,0.0,68,0.00,,,0.00,WUHU216HW,2013-09-12 07:26:00,
2013-09-12 03:28:00,66.9,55.9,29.74,ENE,68,0.0,0.0,68,0.00,,,0.00,WUHU216HW,2013-09-12 07:28:00,
2013-09-12 03:29:00,72.6,67.2,29.75,ESE,113,0.0,0.0,84,0.00,,,0.00,WUHU216HW,2013-09-12 07:29:00,
2013-09-12 03:30:00,66.7,55.8,29.75,ENE,68,0.0,0.0,68,0.00,,,0.00,WUHU216HW,2013-09-12 07:30:00,
2013-09-12 03:31:00,66.7,55.8,29.75,ENE,68,0.0,0.0,68,0.00,,,0.00,WUHU216HW,2013-09-12 07:31:00,
2013-09-12 03:32:00,66.7,55.8,29.75,ENE,68,0.0,0.0,69,0.00,,,0.00,WUHU216HW,2013-09-12 07:32:00,
2013-09-12 03:33:00,66.7,55.8,29.75,ENE,68,0.0,0.0,69,0.00,,,0.00,WUHU216HW,2013-09-12 07:33:00,
2013-09-12 03:34:00,72.6,67.2,29.75,ESE,113,0.0,0.0,84,0.00,,,0.00,WUHU216HW,2013-09-12 07:34:00,
2013-09-12 03:35:00,66.5,56.0,29.75,ENE,68,0.0,0.0,69,0.00,,,0.00,WUHU216HW,2013-09-12 07:35:00,
2013-09-12 03:36:00,66.3,55.8,29.75,ENE,68,0.0,0.0,69,0.00,,,0.00,WUHU216HW,2013-09-12 07:36:00,
2013-09-12 03:37:00,66.3,55.8,29.75,ENE,68,0.0,0.0,69,0.00,,,0.00,WUHU216HW,2013-09-12 07:37:00,
2013-09-12 03:38:00,66.3,55.8,29.75,ENE,68,0.0,0.0,69,0.00,,,0.00,WUHU216HW,2013-09-12 07:38:00,
2013-09-12 03:39:00,72.6,67.2,29.75,ESE,113,0.0,0.0,84,0.00,,,0.00,WUHU216HW,2013-09-12 07:39:00,
2013-09-12 03:41:00,66.0,55.9,29.75,ENE,68,0.0,0.0,70,0.00,,,0.00,WUHU216HW,2013-09-12 07:41:00,
2013-09-12 03:44:00,72.5,67.3,29.75,ESE,113,0.0,0.0,84,0.00,,,0.00,WUHU216HW,2013-09-12 07:44:00,
2013-09-12 03:45:00,65.8,55.7,29.75,ENE,68,0.0,0.0,70,0.00,,,0.00,WUHU216HW,2013-09-12 07:45:00,
2013-09-12 03:46:00,65.8,55.7,29.75,ENE,68,0.0,0.0,70,0.00,,,0.00,WUHU216HW,2013-09-12 07:46:00,
2013-09-12 03:47:00,65.8,55.7,29.75,ENE,68,0.0,0.0,70,0.00,,,0.00,WUHU216HW,2013-09-12 07:47:00,
2013-09-12 03:48:00,65.8,55.7,29.75,ENE,68,0.0,0.0,70,0.00,,,0.00,WUHU216HW,2013-09-12 07:48:00,
2013-09-12 03:49:00,72.5,67.3,29.75,ESE,113,0.0,0.0,84,0.00,,,0.00,WUHU216HW,2013-09-12 07:49:00,
2013-09-12 03:55:00,72.5,67.3,29.74,ESE,113,0.0,0.0,84,0.00,,,0.00,WUHU216HW,2013-09-12 07:55:00,
2013-09-12 04:00:00,72.5,67.3,29.74,ESE,113,0.0,0.0,84,0.00,,,0.00,WUHU216HW,2013-09-12 08:00:00,
2013-09-12 04:05:00,72.5,67.3,29.74,East,90,0.0,0.0,84,0.00,,,0.00,WUHU216HW,2013-09-12 08:05:00,
2013-09-12 04:10:00,72.3,67.5,29.74,ESE,113,0.0,0.0,85,0.00,,,0.00,WUHU216HW,2013-09-12 08:10:00,
2013-09-12 04:15:00,72.3,67.5,29.74,ESE,113,0.0,0.0,85,0.00,,,0.00,WUHU216HW,2013-09-12 08:15:00,
2013-09-12 04:20:00,72.3,67.5,29.74,ESE,113,0.0,0.0,85,0.00,,,0.00,WUHU216HW,2013-09-12 08:20:00,
2013-09-12 04:25:00,72.3,67.5,29.74,ESE,113,0.0,0.0,85,0.00,,,0.00,WUHU216HW,2013-09-12 08:25:00,
2013-09-12 04:27:00,63.5,55.4,29.75,ENE,68,0.0,0.0,75,0.00,,,0.00,WUHU216HW,2013-09-12 08:27:00,
2013-09-12 04:30:00,72.1,67.3,29.74,ESE,113,0.0,0.0,85,0.00,,,0.00,WUHU216HW,2013-09-12 08:30:00,
2013-09-12 04:31:00,63.3,55.2,29.76,ENE,68,0.0,0.0,75,0.00,,,0.00,WUHU216HW,2013-09-12 08:31:00,
2013-09-12 04:32:00,63.3,55.2,29.76,ENE,68,0.0,0.0,75,0.00,,,0.00,WUHU216HW,2013-09-12 08:32:00,
2013-09-12 04:33:00,63.3,55.2,29.76,ENE,68,0.0,0.0,75,0.00,,,0.00,WUHU216HW,2013-09-12 08:33:00,
2013-09-12 04:34:00,63.3,55.2,29.76,ENE,68,0.0,0.0,75,0.00,,,0.00,WUHU216HW,2013-09-12 08:34:00,
2013-09-12 04:35:00,72.1,67.3,29.73,ESE,113,0.0,0.0,85,0.00,,,0.00,WUHU216HW,2013-09-12 08:35:00,
2013-09-12 04:36:00,63.3,55.2,29.76,ENE,68,0.0,0.0,75,0.00,,,0.00,WUHU216HW,2013-09-12 08:36:00,
2013-09-12 04:39:00,63.1,55.0,29.76,ENE,68,0.0,0.0,75,0.00,,,0.00,WUHU216HW,2013-09-12 08:39:00,
2013-09-12 04:40:00,63.1,55.0,29.76,ENE,68,0.0,0.0,75,0.00,,,0.00,WUHU216HW,2013-09-12 08:40:00,
2013-09-12 04:41:00,72.1,67.3,29.73,ESE,113,0.0,0.0,85,0.00,,,0.00,WUHU216HW,2013-09-12 08:41:00,
2013-09-12 04:42:00,63.1,55.0,29.76,ENE,68,0.0,0.0,75,0.00,,,0.00,WUHU216HW,2013-09-12 08:42:00,
2013-09-12 04:43:00,63.1,55.0,29.76,ENE,68,0.0,0.0,75,0.00,,,0.00,WUHU216HW,2013-09-12 08:43:00,
2013-09-12 04:44:00,63.1,55.0,29.76,ENE,68,0.0,0.0,75,0.00,,,0.00,WUHU216HW,2013-09-12 08:44:00,
2013-09-12 04:45:00,63.1,55.0,29.76,ENE,68,0.0,0.0,75,0.00,,,0.00,WUHU216HW,2013-09-12 08:45:00,
2013-09-12 04:46:00,72.1,67.3,29.74,ESE,113,0.0,0.0,85,0.00,,,0.00,WUHU216HW,2013-09-12 08:46:00,
2013-09-12 04:47:00,63.1,55.0,29.76,NE,45,0.0,0.0,77,0.00,,,0.00,WUHU216HW,2013-09-12 08:47:00,
2013-09-12 04:48:00,62.9,55.2,29.76,NE,45,0.0,0.0,76,0.00,,,0.00,WUHU216HW,2013-09-12 08:48:00,
2013-09-12 04:49:00,62.9,55.2,29.76,NE,45,0.0,0.0,76,0.00,,,0.00,WUHU216HW,2013-09-12 08:49:00,
2013-09-12 04:50:00,62.9,55.2,29.76,NE,45,0.0,0.0,77,0.00,,,0.00,WUHU216HW,2013-09-12 08:50:00,
2013-09-12 04:51:00,71.9,67.1,29.74,ESE,113,0.0,0.0,85,0.00,,,0.00,WUHU216HW,2013-09-12 08:51:00,
2013-09-12 04:52:00,62.7,55.4,29.76,NE,45,0.0,0.0,77,0.00,,,0.00,WUHU216HW,2013-09-12 08:52:00,
2013-09-12 04:56:00,71.9,67.1,29.74,ESE,113,0.0,0.0,85,0.00,,,0.00,WUHU216HW,2013-09-12 08:56:00,
2013-09-12 05:02:00,71.9,67.1,29.74,ESE,113,0.0,0.0,85,0.00,,,0.00,WUHU216HW,2013-09-12 09:02:00,
2013-09-12 05:07:00,71.7,67.0,29.74,ESE,113,0.0,0.0,85,0.00,,,0.00,WUHU216HW,2013-09-12 09:07:00,
2013-09-12 05:12:00,71.7,67.0,29.74,ESE,113,0.0,0.0,85,0.00,,,0.00,WUHU216HW,2013-09-12 09:12:00,
2013-09-12 05:17:00,71.6,67.1,29.74,ESE,113,0.0,0.0,86,0.00,,,0.00,WUHU216HW,2013-09-12 09:17:00,
2013-09-12 05:22:00,71.4,66.9,29.74,ESE,113,0.0,0.0,86,0.00,,,0.00,WUHU216HW,2013-09-12 09:22:00,
2013-09-12 05:27:00,71.4,66.9,29.74,ESE,113,0.0,0.0,87,0.00,,,0.00,WUHU216HW,2013-09-12 09:27:00,
2013-09-12 05:28:00,61.3,54.8,29.76,NE,45,0.0,0.0,79,0.00,,,0.00,WUHU216HW,2013-09-12 09:28:00,
2013-09-12 05:29:00,61.3,54.8,29.76,NE,45,0.0,0.0,79,0.00,,,0.00,WUHU216HW,2013-09-12 09:29:00,
2013-09-12 05:31:00,61.3,54.8,29.76,NE,45,0.0,0.0,79,0.00,,,0.00,WUHU216HW,2013-09-12 09:31:00,
2013-09-12 05:32:00,71.2,66.8,29.74,ESE,113,0.0,0.0,86,0.00,,,0.00,WUHU216HW,2013-09-12 09:32:00,
2013-09-12 05:33:00,61.3,54.8,29.76,NE,45,0.0,0.0,79,0.00,,,0.00,WUHU216HW,2013-09-12 09:33:00,
2013-09-12 05:34:00,61.3,54.8,29.76,NE,45,0.0,0.0,79,0.00,,,0.00,WUHU216HW,2013-09-12 09:34:00,
2013-09-12 05:35:00,61.3,54.8,29.76,NE,45,0.0,0.0,79,0.00,,,0.00,WUHU216HW,2013-09-12 09:35:00,
2013-09-12 05:36:00,61.3,54.8,29.76,NE,45,0.0,0.0,79,0.00,,,0.00,WUHU216HW,2013-09-12 09:36:00,
2013-09-12 05:37:00,71.2,66.8,29.74,ESE,113,0.0,0.0,86,0.00,,,0.00,WUHU216HW,2013-09-12 09:37:00,
2013-09-12 05:38:00,61.3,54.8,29.76,NE,45,0.0,0.0,79,0.00,,,0.00,WUHU216HW,2013-09-12 09:38:00,
2013-09-12 05:39:00,61.1,55.0,29.76,NE,45,0.0,0.0,80,0.00,,,0.00,WUHU216HW,2013-09-12 09:39:00,
2013-09-12 05:40:00,61.1,55.0,29.76,NE,45,0.0,0.0,80,0.00,,,0.00,WUHU216HW,2013-09-12 09:40:00,
2013-09-12 05:41:00,60.9,54.8,29.77,NE,45,0.0,0.0,80,0.00,,,0.00,WUHU216HW,2013-09-12 09:41:00,
2013-09-12 05:42:00,71.4,66.9,29.74,ESE,113,0.0,0.0,86,0.00,,,0.00,WUHU216HW,2013-09-12 09:42:00,
2013-09-12 05:43:00,60.9,54.8,29.76,NE,45,0.0,0.0,80,0.00,,,0.00,WUHU216HW,2013-09-12 09:43:00,
2013-09-12 05:44:00,60.9,54.8,29.76,NE,45,0.0,0.0,80,0.00,,,0.00,WUHU216HW,2013-09-12 09:44:00,
2013-09-12 05:45:00,60.9,54.8,29.76,NE,45,0.0,0.0,80,0.00,,,0.00,WUHU216HW,2013-09-12 09:45:00,
2013-09-12 05:46:00,60.9,54.8,29.76,NE,45,0.0,0.0,80,0.00,,,0.00,WUHU216HW,2013-09-12 09:46:00,
2013-09-12 05:47:00,60.9,54.8,29.76,NE,45,0.0,0.0,80,0.00,,,0.00,WUHU216HW,2013-09-12 09:47:00,
2013-09-12 05:48:00,71.2,66.8,29.74,ESE,113,0.0,0.0,86,0.00,,,0.00,WUHU216HW,2013-09-12 09:48:00,
2013-09-12 05:53:00,71.2,66.8,29.74,ESE,113,0.0,0.0,86,0.00,,,0.00,WUHU216HW,2013-09-12 09:53:00,
2013-09-12 05:54:00,60.6,54.5,29.77,NE,45,0.0,0.0,81,0.00,,,0.00,WUHU216HW,2013-09-12 09:54:00,
2013-09-12 05:57:00,60.6,54.5,29.77,NE,45,0.0,0.0,81,0.00,,,0.00,WUHU216HW,2013-09-12 09:57:00,
2013-09-12 05:58:00,71.2,66.8,29.74,ESE,113,0.0,0.0,86,0.00,,,0.00,WUHU216HW,2013-09-12 09:58:00,
2013-09-12 05:59:00,60.4,54.9,29.77,NE,45,0.0,0.0,82,0.00,,,0.00,WUHU216HW,2013-09-12 09:59:00,
2013-09-12 06:01:00,60.4,54.9,29.77,NE,45,0.0,0.0,81,0.00,,,0.00,WUHU216HW,2013-09-12 10:01:00,
2013-09-12 06:02:00,60.4,54.9,29.76,NE,45,0.0,0.0,81,0.00,,,0.00,WUHU216HW,2013-09-12 10:02:00,
2013-09-12 06:03:00,71.2,66.8,29.74,ESE,113,0.0,0.0,86,0.00,,,0.00,WUHU216HW,2013-09-12 10:03:00,
2013-09-12 06:04:00,60.4,54.9,29.77,NE,45,0.0,0.0,81,0.00,,,0.00,WUHU216HW,2013-09-12 10:04:00,
2013-09-12 06:05:00,60.4,54.9,29.76,NE,45,0.0,0.0,81,0.00,,,0.00,WUHU216HW,2013-09-12 10:05:00,
2013-09-12 06:06:00,60.4,54.9,29.77,NE,45,0.0,0.0,81,0.00,,,0.00,WUHU216HW,2013-09-12 10:06:00,
2013-09-12 06:07:00,60.4,54.9,29.77,NE,45,0.0,0.0,81,0.00,,,0.00,WUHU216HW,2013-09-12 10:07:00,
2013-09-12 06:08:00,71.2,66.8,29.74,ESE,113,0.0,0.0,86,0.00,,,0.00,WUHU216HW,2013-09-12 10:08:00,
2013-09-12 06:13:00,71.2,66.8,29.74,ESE,113,0.0,0.0,86,0.00,,,0.00,WUHU216HW,2013-09-12 10:13:00,
2013-09-12 06:18:00,71.2,66.8,29.75,ESE,113,0.0,0.0,86,0.00,,,0.00,WUHU216HW,2013-09-12 10:18:00,
2013-09-12 06:20:00,59.9,54.7,29.77,NE,45,0.0,0.0,83,0.00,,,0.00,WUHU216HW,2013-09-12 10:20:00,
2013-09-12 06:23:00,71.2,66.8,29.74,ESE,113,0.0,0.0,86,0.00,,,0.00,WUHU216HW,2013-09-12 10:23:00,
2013-09-12 06:24:00,59.7,54.8,29.77,NE,45,0.0,0.0,84,0.00,,,0.00,WUHU216HW,2013-09-12 10:24:00,
2013-09-12 06:26:00,59.7,54.8,29.77,NE,45,0.0,0.0,84,0.00,,,0.00,WUHU216HW,2013-09-12 10:26:00,
2013-09-12 06:27:00,59.7,54.8,29.77,NE,45,0.0,0.0,84,0.00,,,0.00,WUHU216HW,2013-09-12 10:27:00,
2013-09-12 06:28:00,71.2,66.8,29.74,ESE,113,0.0,0.0,86,0.00,,,0.00,WUHU216HW,2013-09-12 10:28:00,
2013-09-12 06:29:00,59.7,54.8,29.77,NE,45,0.0,0.0,84,0.00,,,0.00,WUHU216HW,2013-09-12 10:29:00,
2013-09-12 06:30:00,59.7,54.8,29.77,NE,45,0.0,0.0,84,0.00,,,0.00,WUHU216HW,2013-09-12 10:30:00,
2013-09-12 06:32:00,59.7,54.8,29.77,NE,45,0.0,0.0,84,0.00,,,0.00,WUHU216HW,2013-09-12 10:32:00,
2013-09-12 06:33:00,59.5,55.0,29.77,NE,45,0.0,0.0,85,0.00,,,0.00,WUHU216HW,2013-09-12 10:33:00,
2013-09-12 06:34:00,71.2,66.8,29.74,ESE,113,0.0,0.0,87,0.00,,,0.00,WUHU216HW,2013-09-12 10:34:00,
2013-09-12 06:39:00,71.2,66.8,29.74,ESE,113,0.0,0.0,86,0.00,,,0.00,WUHU216HW,2013-09-12 10:39:00,
2013-09-12 06:44:00,71.2,66.8,29.74,ESE,113,0.0,0.0,86,0.00,,,0.00,WUHU216HW,2013-09-12 10:44:00,
2013-09-12 06:49:00,71.2,66.8,29.74,ESE,113,0.0,0.0,86,0.00,,,0.00,WUHU216HW,2013-09-12 10:49:00,
2013-09-12 06:54:00,71.2,66.8,29.74,ESE,113,0.0,0.0,86,0.00,,,0.00,WUHU216HW,2013-09-12 10:54:00,
2013-09-12 06:59:00,71.2,66.8,29.74,ESE,113,0.0,0.0,86,0.00,,,0.00,WUHU216HW,2013-09-12 10:59:00,
2013-09-12 07:04:00,71.2,66.8,29.74,ESE,113,0.0,0.0,86,0.00,,,0.00,WUHU216HW,2013-09-12 11:04:00,
2013-09-12 07:10:00,71.2,66.8,29.74,ESE,113,0.0,0.0,86,0.00,,,0.00,WUHU216HW,2013-09-12 11:10:00,
2013-09-12 07:14:00,58.8,54.6,29.78,NE,45,0.0,0.0,87,0.00,,,0.00,WUHU216HW,2013-09-12 11:14:00,
2013-09-12 07:15:00,71.2,66.8,29.74,ESE,113,0.0,0.0,86,0.00,,,0.00,WUHU216HW,2013-09-12 11:15:00,
2013-09-12 07:16:00,58.6,54.4,29.78,NE,45,0.0,0.0,86,0.00,,,0.00,WUHU216HW,2013-09-12 11:16:00,
2013-09-12 07:17:00,58.6,54.4,29.78,NE,45,0.0,0.0,86,0.00,,,0.00,WUHU216HW,2013-09-12 11:17:00,
2013-09-12 07:18:00,58.6,54.4,29.78,NE,45,0.0,0.0,86,0.00,,,0.00,WUHU216HW,2013-09-12 11:18:00,
2013-09-12 07:19:00,58.6,54.4,29.78,NE,45,0.0,0.0,86,0.00,,,0.00,WUHU216HW,2013-09-12 11:19:00,
2013-09-12 07:20:00,71.2,66.8,29.73,ESE,113,0.0,0.0,86,0.00,,,0.00,WUHU216HW,2013-09-12 11:20:00,
2013-09-12 07:21:00,58.6,54.4,29.78,NE,45,0.0,0.0,86,0.00,,,0.00,WUHU216HW,2013-09-12 11:21:00,
2013-09-12 07:22:00,58.6,54.4,29.78,NE,45,0.0,0.0,86,0.00,,,0.00,WUHU216HW,2013-09-12 11:22:00,
2013-09-12 07:23:00,58.6,54.4,29.78,NE,45,0.0,0.0,86,0.00,,,0.00,WUHU216HW,2013-09-12 11:23:00,
2013-09-12 07:24:00,58.6,54.4,29.78,NE,45,0.0,0.0,86,0.00,,,0.00,WUHU216HW,2013-09-12 11:24:00,
2013-09-12 07:25:00,71.2,66.8,29.74,ESE,113,0.0,0.0,86,0.00,,,0.00,WUHU216HW,2013-09-12 11:25:00,
2013-09-12 07:26:00,58.6,54.4,29.78,NE,45,0.0,0.0,86,0.00,,,0.00,WUHU216HW,2013-09-12 11:26:00,
2013-09-12 07:28:00,58.6,54.4,29.78,NE,45,0.0,0.0,86,0.00,,,0.00,WUHU216HW,2013-09-12 11:28:00,
2013-09-12 07:29:00,58.6,54.4,29.78,NE,45,0.0,0.0,86,0.00,,,0.00,WUHU216HW,2013-09-12 11:29:00,
2013-09-12 07:30:00,71.4,66.6,29.74,ESE,113,0.0,0.0,85,0.00,,,0.00,WUHU216HW,2013-09-12 11:30:00,
2013-09-12 07:31:00,58.6,54.4,29.78,NE,45,0.0,0.0,87,0.00,,,0.00,WUHU216HW,2013-09-12 11:31:00,
2013-09-12 07:35:00,71.4,66.6,29.74,ESE,113,0.0,0.0,85,0.00,,,0.00,WUHU216HW,2013-09-12 11:35:00,
2013-09-12 07:36:00,58.2,54.4,29.78,NE,45,0.0,0.0,87,0.00,,,0.00,WUHU216HW,2013-09-12 11:36:00,
2013-09-12 07:37:00,58.2,54.4,29.79,NE,45,0.0,0.0,87,0.00,,,0.00,WUHU216HW,2013-09-12 11:37:00,
2013-09-12 07:38:00,58.2,54.4,29.79,NE,45,0.0,0.0,87,0.00,,,0.00,WUHU216HW,2013-09-12 11:38:00,
2013-09-12 07:40:00,71.7,67.0,29.74,ESE,113,0.0,0.0,85,0.00,,,0.00,WUHU216HW,2013-09-12 11:40:00,
2013-09-12 07:45:00,71.7,67.0,29.74,ESE,113,0.0,0.0,85,0.00,,,0.00,WUHU216HW,2013-09-12 11:45:00,
2013-09-12 07:50:00,71.9,67.1,29.74,ESE,113,0.0,0.0,85,0.00,,,0.00,WUHU216HW,2013-09-12 11:50:00,
2013-09-12 07:53:00,57.9,54.0,29.78,NE,45,0.0,0.0,87,0.00,,,0.00,WUHU216HW,2013-09-12 11:53:00,
2013-09-12 07:55:00,72.1,67.3,29.73,ESE,113,0.0,0.0,85,0.00,,,0.00,WUHU216HW,2013-09-12 11:55:00,
2013-09-12 07:56:00,57.9,54.0,29.78,NE,45,0.0,0.0,87,0.00,,,0.00,WUHU216HW,2013-09-12 11:56:00,
2013-09-12 07:57:00,57.9,54.0,29.79,NE,45,0.0,0.0,87,0.00,,,0.00,WUHU216HW,2013-09-12 11:57:00,
2013-09-12 07:58:00,57.9,54.0,29.78,NE,45,0.0,0.0,87,0.00,,,0.00,WUHU216HW,2013-09-12 11:58:00,
2013-09-12 07:59:00,57.9,54.0,29.78,NE,45,0.0,0.0,87,0.00,,,0.00,WUHU216HW,2013-09-12 11:59:00,
2013-09-12 08:00:00,72.3,67.5,29.73,ESE,113,0.0,0.0,85,0.00,,,0.00,WUHU216HW,2013-09-12 12:00:00,
2013-09-12 08:01:00,57.7,53.8,29.78,NE,45,0.0,0.0,87,0.00,,,0.00,WUHU216HW,2013-09-12 12:01:00,
2013-09-12 08:02:00,57.7,53.8,29.79,NE,45,0.0,0.0,87,0.00,,,0.00,WUHU216HW,2013-09-12 12:02:00,
2013-09-12 08:03:00,57.7,53.8,29.79,NE,45,0.0,0.0,87,0.00,,,0.00,WUHU216HW,2013-09-12 12:03:00,
2013-09-12 08:06:00,72.3,67.5,29.73,ESE,113,0.0,0.0,84,0.00,,,0.00,WUHU216HW,2013-09-12 12:06:00,
2013-09-12 08:08:00,57.7,53.8,29.79,NE,45,0.0,0.0,87,0.00,,,0.00,WUHU216HW,2013-09-12 12:08:00,
2013-09-12 08:10:00,57.7,53.8,29.79,NE,45,0.0,0.0,87,0.00,,,0.00,WUHU216HW,2013-09-12 12:10:00,
2013-09-12 08:11:00,72.5,67.3,29.73,ESE,113,0.0,0.0,84,0.00,,,0.00,WUHU216HW,2013-09-12 12:11:00,
2013-09-12 08:12:00,57.7,53.8,29.79,NE,45,0.0,0.0,88,0.00,,,0.00,WUHU216HW,2013-09-12 12:12:00,
2013-09-12 08:13:00,57.7,53.8,29.79,NE,45,0.0,0.0,88,0.00,,,0.00,WUHU216HW,2013-09-12 12:13:00,
2013-09-12 08:14:00,57.7,53.8,29.79,NE,45,0.0,0.0,88,0.00,,,0.00,WUHU216HW,2013-09-12 12:14:00,
2013-09-12 08:15:00,57.7,53.8,29.79,NE,45,0.0,0.0,88,0.00,,,0.00,WUHU216HW,2013-09-12 12:15:00,
2013-09-12 08:16:00,72.5,67.3,29.73,ESE,113,0.0,0.0,84,0.00,,,0.00,WUHU216HW,2013-09-12 12:16:00,
2013-09-12 08:17:00,57.7,53.8,29.79,NE,45,0.0,0.0,88,0.00,,,0.00,WUHU216HW,2013-09-12 12:17:00,
2013-09-12 08:18:00,57.7,53.8,29.79,NE,45,0.0,0.0,88,0.00,,,0.00,WUHU216HW,2013-09-12 12:18:00,
2013-09-12 08:19:00,57.7,53.8,29.79,NE,45,0.0,0.0,88,0.00,,,0.00,WUHU216HW,2013-09-12 12:19:00,
2013-09-12 08:20:00,57.7,53.8,29.79,NE,45,0.0,0.0,88,0.00,,,0.00,WUHU216HW,2013-09-12 12:20:00,
2013-09-12 08:21:00,72.6,67.5,29.73,ESE,113,0.0,0.0,84,0.00,,,0.00,WUHU216HW,2013-09-12 12:21:00,
2013-09-12 08:22:00,57.7,53.8,29.79,NE,45,0.0,0.0,88,0.00,,,0.00,WUHU216HW,2013-09-12 12:22:00,
2013-09-12 08:23:00,57.7,53.8,29.79,NE,45,0.0,0.0,88,0.00,,,0.00,WUHU216HW,2013-09-12 12:23:00,
2013-09-12 08:24:00,57.7,53.8,29.79,NE,45,0.0,0.0,88,0.00,,,0.00,WUHU216HW,2013-09-12 12:24:00,
2013-09-12 08:25:00,57.5,54.0,29.78,NE,45,0.0,0.0,88,0.00,,,0.00,WUHU216HW,2013-09-12 12:25:00,
2013-09-12 08:26:00,73.0,67.9,29.73,ESE,113,0.0,0.0,84,0.00,,,0.00,WUHU216HW,2013-09-12 12:26:00,
2013-09-12 08:27:00,57.5,54.0,29.78,NE,45,0.0,0.0,88,0.00,,,0.00,WUHU216HW,2013-09-12 12:27:00,
2013-09-12 08:28:00,57.5,54.0,29.79,NE,45,0.0,0.0,88,0.00,,,0.00,WUHU216HW,2013-09-12 12:28:00,
2013-09-12 08:29:00,57.5,54.0,29.79,NE,45,0.0,0.0,88,0.00,,,0.00,WUHU216HW,2013-09-12 12:29:00,
2013-09-12 08:30:00,57.5,54.0,29.79,NE,45,0.0,0.0,88,0.00,,,0.00,WUHU216HW,2013-09-12 12:30:00,
2013-09-12 08:31:00,73.0,67.9,29.72,ESE,113,0.0,0.0,84,0.00,,,0.00,WUHU216HW,2013-09-12 12:31:00,
2013-09-12 08:32:00,57.5,54.0,29.79,NE,45,0.0,0.0,88,0.00,,,0.00,WUHU216HW,2013-09-12 12:32:00,
2013-09-12 08:33:00,57.5,54.0,29.79,NE,45,0.0,0.0,88,0.00,,,0.00,WUHU216HW,2013-09-12 12:33:00,
2013-09-12 08:34:00,57.3,53.8,29.79,NE,45,0.0,0.0,88,0.00,,,0.00,WUHU216HW,2013-09-12 12:34:00,
2013-09-12 08:35:00,57.3,53.8,29.79,NE,45,0.0,0.0,88,0.00,,,0.00,WUHU216HW,2013-09-12 12:35:00,
2013-09-12 08:36:00,73.0,67.9,29.72,ESE,113,0.0,0.0,84,0.00,,,0.00,WUHU216HW,2013-09-12 12:36:00,
2013-09-12 08:37:00,57.3,53.8,29.79,NE,45,0.0,0.0,88,0.00,,,0.00,WUHU216HW,2013-09-12 12:37:00,
2013-09-12 08:39:00,57.3,53.8,29.79,NE,45,0.0,0.0,88,0.00,,,0.00,WUHU216HW,2013-09-12 12:39:00,
2013-09-12 08:41:00,73.2,67.7,29.72,ESE,113,0.0,0.0,83,0.00,,,0.00,WUHU216HW,2013-09-12 12:41:00,
2013-09-12 08:42:00,57.2,53.6,29.79,NE,45,0.0,0.0,88,0.00,,,0.00,WUHU216HW,2013-09-12 12:42:00,
2013-09-12 08:43:00,57.2,53.6,29.79,NE,45,0.0,0.0,88,0.00,,,0.00,WUHU216HW,2013-09-12 12:43:00,
2013-09-12 08:45:00,57.2,53.6,29.79,NE,45,0.0,0.0,88,0.00,,,0.00,WUHU216HW,2013-09-12 12:45:00,
2013-09-12 08:46:00,73.5,68.1,29.72,ESE,113,0.0,0.0,83,0.00,,,0.00,WUHU216HW,2013-09-12 12:46:00,
2013-09-12 08:47:00,57.0,53.4,29.79,NE,45,0.0,0.0,88,0.00,,,0.00,WUHU216HW,2013-09-12 12:47:00,
2013-09-12 08:48:00,57.0,53.4,29.79,NE,45,0.0,0.0,88,0.00,,,0.00,WUHU216HW,2013-09-12 12:48:00,
2013-09-12 08:50:00,57.0,53.4,29.79,NE,45,0.0,0.0,88,0.00,,,0.00,WUHU216HW,2013-09-12 12:50:00,
2013-09-12 08:51:00,57.0,53.4,29.79,NE,45,0.0,0.0,88,0.00,,,0.00,WUHU216HW,2013-09-12 12:51:00,
2013-09-12 08:52:00,73.5,68.1,29.72,ESE,113,0.0,0.0,82,0.00,,,0.00,WUHU216HW,2013-09-12 12:52:00,
2013-09-12 08:55:00,57.0,53.4,29.79,NE,45,0.0,0.0,88,0.00,,,0.00,WUHU216HW,2013-09-12 12:55:00,
2013-09-12 08:56:00,57.0,53.4,29.79,NE,45,0.0,0.0,88,0.00,,,0.00,WUHU216HW,2013-09-12 12:56:00,
2013-09-12 08:57:00,73.9,68.1,29.72,ESE,113,0.0,0.0,83,0.00,,,0.00,WUHU216HW,2013-09-12 12:57:00,
2013-09-12 09:02:00,74.1,68.3,29.72,ESE,113,0.0,0.0,82,0.00,,,0.00,WUHU216HW,2013-09-12 13:02:00,
2013-09-12 09:07:00,74.3,68.1,29.72,ESE,113,0.0,0.0,81,0.00,,,0.00,WUHU216HW,2013-09-12 13:07:00,
2013-09-12 09:12:00,74.4,68.3,29.72,ESE,113,0.0,0.0,81,0.00,,,0.00,WUHU216HW,2013-09-12 13:12:00,
2013-09-12 09:18:00,74.8,68.7,29.72,ESE,113,0.0,0.0,81,0.00,,,0.00,WUHU216HW,2013-09-12 13:18:00,
2013-09-12 09:23:00,75.0,68.8,29.72,ESE,113,0.0,0.0,81,0.00,,,0.00,WUHU216HW,2013-09-12 13:23:00,
2013-09-12 09:24:00,56.4,52.9,29.79,NE,45,0.0,0.0,88,0.00,,,0.00,WUHU216HW,2013-09-12 13:24:00,
2013-09-12 09:25:00,56.4,52.9,29.79,NE,45,0.0,0.0,88,0.00,,,0.00,WUHU216HW,2013-09-12 13:25:00,
2013-09-12 09:26:00,56.4,52.9,29.79,NE,45,0.0,0.0,88,0.00,,,0.00,WUHU216HW,2013-09-12 13:26:00,
2013-09-12 09:27:00,56.4,52.9,29.79,NE,45,0.0,0.0,88,0.00,,,0.00,WUHU216HW,2013-09-12 13:27:00,
2013-09-12 09:28:00,75.3,68.4,29.72,NE,45,0.0,0.0,79,0.00,,,0.00,WUHU216HW,2013-09-12 13:28:00,
2013-09-12 09:29:00,56.4,52.9,29.79,NE,45,0.0,0.0,88,0.00,,,0.00,WUHU216HW,2013-09-12 13:29:00,
2013-09-12 09:30:00,56.4,52.9,29.79,NE,45,0.0,0.0,88,0.00,,,0.00,WUHU216HW,2013-09-12 13:30:00,
2013-09-12 09:31:00,56.4,52.9,29.79,NE,45,0.0,0.0,88,0.00,,,0.00,WUHU216HW,2013-09-12 13:31:00,
2013-09-12 09:32:00,56.4,52.9,29.79,NE,45,0.0,0.0,88,0.00,,,0.00,WUHU216HW,2013-09-12 13:32:00,
2013-09-12 09:33:00,75.7,68.8,29.72,NE,45,0.0,0.0,79,0.00,,,0.00,WUHU216HW,2013-09-12 13:33:00,
2013-09-12 09:34:00,56.4,52.9,29.79,NE,45,0.0,0.0,88,0.00,,,0.00,WUHU216HW,2013-09-12 13:34:00,
2013-09-12 09:35:00,56.4,52.9,29.79,NE,45,0.0,0.0,88,0.00,,,0.00,WUHU216HW,2013-09-12 13:35:00,
2013-09-12 09:36:00,56.3,52.7,29.79,NE,45,0.0,0.0,88,0.00,,,0.00,WUHU216HW,2013-09-12 13:36:00,
2013-09-12 09:37:00,56.3,52.7,29.79,NE,45,0.0,0.0,88,0.00,,,0.00,WUHU216HW,2013-09-12 13:37:00,
2013-09-12 09:38:00,75.9,68.9,29.72,NE,45,0.0,0.0,79,0.00,,,0.00,WUHU216HW,2013-09-12 13:38:00,
2013-09-12 09:39:00,56.1,52.5,29.79,NE,45,0.0,0.0,88,0.00,,,0.00,WUHU216HW,2013-09-12 13:39:00,
2013-09-12 09:41:00,56.1,52.5,29.79,NE,45,0.0,0.0,88,0.00,,,0.00,WUHU216HW,2013-09-12 13:41:00,
2013-09-12 09:42:00,56.1,52.5,29.79,NE,45,0.0,0.0,88,0.00,,,0.00,WUHU216HW,2013-09-12 13:42:00,
2013-09-12 09:43:00,56.1,52.5,29.79,NE,45,0.0,0.0,88,0.00,,,0.00,WUHU216HW,2013-09-12 13:43:00,
2013-09-12 09:44:00,76.2,68.9,29.72,NE,45,0.0,0.0,78,0.00,,,0.00,WUHU216HW,2013-09-12 13:44:00,
2013-09-12 09:45:00,56.3,52.7,29.79,NE,45,0.0,0.0,88,0.00,,,0.00,WUHU216HW,2013-09-12 13:45:00,
2013-09-12 09:46:00,56.3,52.7,29.79,NE,45,0.0,0.0,88,0.00,,,0.00,WUHU216HW,2013-09-12 13:46:00,
2013-09-12 09:47:00,56.1,52.5,29.79,NE,45,0.0,0.0,88,0.00,,,0.00,WUHU216HW,2013-09-12 13:47:00,
2013-09-12 09:49:00,76.6,69.2,29.72,NE,45,0.0,0.0,78,0.00,,,0.00,WUHU216HW,2013-09-12 13:49:00,
2013-09-12 09:54:00,76.6,69.2,29.72,NE,45,0.0,0.0,78,0.00,,,0.00,WUHU216HW,2013-09-12 13:54:00,
2013-09-12 09:59:00,77.1,69.3,29.72,ENE,68,0.0,0.0,77,0.00,,,0.00,WUHU216HW,2013-09-12 13:59:00,
2013-09-12 10:04:00,77.5,69.7,29.71,ENE,68,0.0,0.0,77,0.00,,,0.00,WUHU216HW,2013-09-12 14:04:00,
2013-09-12 10:07:00,55.9,52.4,29.79,NE,45,0.0,0.0,88,0.00,,,0.00,WUHU216HW,2013-09-12 14:07:00,
2013-09-12 10:08:00,55.9,52.4,29.79,NE,45,0.0,0.0,88,0.00,,,0.00,WUHU216HW,2013-09-12 14:08:00,
2013-09-12 10:09:00,77.7,69.1,29.71,ENE,68,0.0,0.0,75,0.00,,,0.00,WUHU216HW,2013-09-12 14:09:00,
2013-09-12 10:10:00,55.9,52.4,29.79,NE,45,0.0,0.0,88,0.00,,,0.00,WUHU216HW,2013-09-12 14:10:00,
2013-09-12 10:13:00,55.9,52.4,29.79,NE,45,0.0,0.0,88,0.00,,,0.00,WUHU216HW,2013-09-12 14:13:00,
2013-09-12 10:14:00,78.0,69.8,29.71,ESE,113,0.0,0.0,76,0.00,,,0.00,WUHU216HW,2013-09-12 14:14:00,
2013-09-12 10:16:00,55.7,52.2,29.79,NE,45,0.0,0.0,88,0.00,,,0.00,WUHU216HW,2013-09-12 14:16:00,
2013-09-12 10:18:00,55.7,52.2,29.79,NE,45,0.0,0.0,88,0.00,,,0.00,WUHU216HW,2013-09-12 14:18:00,
2013-09-12 10:19:00,78.4,69.8,29.72,ESE,113,0.0,0.0,75,0.00,,,0.00,WUHU216HW,2013-09-12 14:19:00,
2013-09-12 10:20:00,55.7,52.2,29.79,NE,45,0.0,0.0,88,0.00,,,0.00,WUHU216HW,2013-09-12 14:20:00,
2013-09-12 10:22:00,55.7,52.2,29.79,NE,45,0.0,0.0,88,0.00,,,0.00,WUHU216HW,2013-09-12 14:22:00,
2013-09-12 10:25:00,78.6,69.9,29.71,North,0,0.0,0.0,75,0.00,,,0.00,WUHU216HW,2013-09-12 14:25:00,
2013-09-12 10:27:00,55.7,52.2,29.79,NE,45,0.0,0.0,88,0.00,,,0.00,WUHU216HW,2013-09-12 14:27:00,
2013-09-12 10:29:00,55.7,52.2,29.79,NE,45,0.0,0.0,88,0.00,,,0.00,WUHU216HW,2013-09-12 14:29:00,
2013-09-12 10:30:00,78.8,70.1,29.71,NW,315,0.0,0.0,75,0.00,,,0.00,WUHU216HW,2013-09-12 14:30:00,
2013-09-12 10:32:00,55.7,52.2,29.79,NE,45,0.0,0.0,88,0.00,,,0.00,WUHU216HW,2013-09-12 14:32:00,
2013-09-12 10:33:00,55.7,52.2,29.79,NE,45,0.0,0.0,88,0.00,,,0.00,WUHU216HW,2013-09-12 14:33:00,
2013-09-12 10:35:00,78.9,69.9,29.71,NNW,338,0.0,0.0,75,0.00,,,0.00,WUHU216HW,2013-09-12 14:35:00,
2013-09-12 10:36:00,55.7,52.2,29.79,NE,45,0.0,0.0,88,0.00,,,0.00,WUHU216HW,2013-09-12 14:36:00,
2013-09-12 10:37:00,55.7,52.2,29.79,NE,45,0.0,0.0,88,0.00,,,0.00,WUHU216HW,2013-09-12 14:37:00,
2013-09-12 10:38:00,55.7,52.2,29.79,NE,45,0.0,0.0,88,0.00,,,0.00,WUHU216HW,2013-09-12 14:38:00,
2013-09-12 10:40:00,79.5,70.4,29.71,NNW,338,0.0,0.0,74,0.00,,,0.00,WUHU216HW,2013-09-12 14:40:00,
2013-09-12 10:42:00,55.7,52.2,29.79,NE,45,0.0,0.0,88,0.00,,,0.00,WUHU216HW,2013-09-12 14:42:00,
2013-09-12 10:43:00,55.7,52.2,29.79,NE,45,0.0,0.0,88,0.00,,,0.00,WUHU216HW,2013-09-12 14:43:00,
2013-09-12 10:44:00,55.7,52.2,29.79,NE,45,0.0,0.0,88,0.00,,,0.00,WUHU216HW,2013-09-12 14:44:00,
2013-09-12 10:45:00,79.5,70.4,29.71,NNW,338,0.0,0.0,73,0.00,,,0.00,WUHU216HW,2013-09-12 14:45:00,
2013-09-12 10:46:00,55.7,52.2,29.79,NE,45,0.0,0.0,88,0.00,,,0.00,WUHU216HW,2013-09-12 14:46:00,
2013-09-12 10:48:00,55.7,52.2,29.79,NE,45,0.0,0.0,88,0.00,,,0.00,WUHU216HW,2013-09-12 14:48:00,
2013-09-12 10:49:00,55.7,52.2,29.79,NE,45,0.0,0.0,88,0.00,,,0.00,WUHU216HW,2013-09-12 14:49:00,
2013-09-12 10:50:00,79.8,70.4,29.70,NNW,338,0.0,0.0,74,0.00,,,0.00,WUHU216HW,2013-09-12 14:50:00,
2013-09-12 10:55:00,80.2,70.8,29.71,NNW,338,0.0,0.0,73,0.00,,,0.00,WUHU216HW,2013-09-12 14:55:00,
2013-09-12 11:01:00,80.4,70.9,29.70,NNW,338,0.0,0.0,73,0.00,,,0.00,WUHU216HW,2013-09-12 15:01:00,
2013-09-12 11:06:00,81.1,71.6,29.70,NNW,338,0.0,0.0,73,0.00,,,0.00,WUHU216HW,2013-09-12 15:06:00,
2013-09-12 11:11:00,81.5,71.1,29.69,NNW,338,0.0,0.0,71,0.00,,,0.00,WUHU216HW,2013-09-12 15:11:00,
2013-09-12 11:16:00,81.8,71.5,29.69,WNW,293,0.0,0.0,71,0.00,,,0.00,WUHU216HW,2013-09-12 15:16:00,
2013-09-12 11:21:00,82.0,71.2,29.69,NNE,23,0.0,0.0,70,0.00,,,0.00,WUHU216HW,2013-09-12 15:21:00,
2013-09-12 11:26:00,82.5,71.7,29.69,NNE,23,0.0,0.0,70,0.00,,,0.00,WUHU216HW,2013-09-12 15:26:00,
2013-09-12 11:31:00,83.3,71.6,29.69,NE,45,0.0,0.0,68,0.00,,,0.00,WUHU216HW,2013-09-12 15:31:00,
2013-09-12 11:37:00,83.8,72.1,29.69,NE,45,0.0,0.0,68,0.00,,,0.00,WUHU216HW,2013-09-12 15:37:00,
2013-09-12 11:38:00,55.9,52.7,29.79,NE,45,0.0,0.0,89,0.00,,,0.00,WUHU216HW,2013-09-12 15:38:00,
2013-09-12 11:41:00,55.9,52.7,29.78,NE,45,0.0,0.0,89,0.00,,,0.00,WUHU216HW,2013-09-12 15:41:00,
2013-09-12 11:42:00,84.2,72.0,29.69,ESE,113,0.0,0.0,67,0.00,,,0.00,WUHU216HW,2013-09-12 15:42:00,
2013-09-12 11:43:00,55.9,52.7,29.79,NE,45,0.0,0.0,89,0.00,,,0.00,WUHU216HW,2013-09-12 15:43:00,
2013-09-12 11:47:00,84.9,72.2,29.69,ENE,68,0.0,0.0,66,0.00,,,0.00,WUHU216HW,2013-09-12 15:47:00,
2013-09-12 11:48:00,55.7,52.5,29.79,NE,45,0.0,0.0,89,0.00,,,0.00,WUHU216HW,2013-09-12 15:48:00,
2013-09-12 11:49:00,55.7,52.5,29.78,NE,45,0.0,0.0,89,0.00,,,0.00,WUHU216HW,2013-09-12 15:49:00,
2013-09-12 11:50:00,55.7,52.5,29.79,NE,45,0.0,0.0,89,0.00,,,0.00,WUHU216HW,2013-09-12 15:50:00,
2013-09-12 11:51:00,55.7,52.5,29.79,NE,45,0.0,0.0,89,0.00,,,0.00,WUHU216HW,2013-09-12 15:51:00,
2013-09-12 11:52:00,85.2,72.6,29.69,ESE,113,0.0,0.0,66,0.00,,,0.00,WUHU216HW,2013-09-12 15:52:00,
2013-09-12 11:53:00,55.7,52.5,29.79,NE,45,0.0,0.0,89,0.00,,,0.00,WUHU216HW,2013-09-12 15:53:00,
2013-09-12 11:54:00,55.7,52.5,29.79,NE,45,0.0,0.0,89,0.00,,,0.00,WUHU216HW,2013-09-12 15:54:00,
2013-09-12 11:55:00,55.7,52.5,29.79,NE,45,0.0,0.0,89,0.00,,,0.00,WUHU216HW,2013-09-12 15:55:00,
2013-09-12 11:56:00,55.7,52.5,29.79,NE,45,0.0,0.0,89,0.00,,,0.00,WUHU216HW,2013-09-12 15:56:00,
2013-09-12 11:57:00,85.4,73.2,29.69,ESE,113,0.0,0.0,67,0.00,,,0.00,WUHU216HW,2013-09-12 15:57:00,
2013-09-12 11:58:00,55.9,52.7,29.79,NE,45,0.0,0.0,89,0.00,,,0.00,WUHU216HW,2013-09-12 15:58:00,
2013-09-12 11:59:00,55.9,52.7,29.79,NE,45,0.0,0.0,89,0.00,,,0.00,WUHU216HW,2013-09-12 15:59:00,
2013-09-12 12:01:00,55.7,52.5,29.79,NE,45,0.0,0.0,89,0.00,,,0.00,WUHU216HW,2013-09-12 16:01:00,
2013-09-12 12:02:00,86.1,73.4,29.69,ESE,113,0.0,0.0,66,0.00,,,0.00,WUHU216HW,2013-09-12 16:02:00,
2013-09-12 12:03:00,55.7,52.5,29.79,NE,45,0.0,0.0,89,0.00,,,0.00,WUHU216HW,2013-09-12 16:03:00,
2013-09-12 12:04:00,55.7,52.5,29.79,NE,45,0.0,0.0,89,0.00,,,0.00,WUHU216HW,2013-09-12 16:04:00,
2013-09-12 12:05:00,55.7,52.5,29.79,NE,45,0.0,0.0,89,0.00,,,0.00,WUHU216HW,2013-09-12 16:05:00,
2013-09-12 12:06:00,55.7,52.5,29.79,NE,45,0.0,0.0,89,0.00,,,0.00,WUHU216HW,2013-09-12 16:06:00,
2013-09-12 12:07:00,86.3,73.2,29.69,ESE,113,0.0,0.0,66,0.00,,,0.00,WUHU216HW,2013-09-12 16:07:00,
2013-09-12 12:08:00,55.7,52.5,29.79,NE,45,0.0,0.0,89,0.00,,,0.00,WUHU216HW,2013-09-12 16:08:00,
2013-09-12 12:09:00,55.7,52.5,29.79,NE,45,0.0,0.0,89,0.00,,,0.00,WUHU216HW,2013-09-12 16:09:00,
2013-09-12 12:10:00,55.9,52.7,29.79,NE,45,0.0,0.0,89,0.00,,,0.00,WUHU216HW,2013-09-12 16:10:00,
2013-09-12 12:13:00,86.3,72.7,29.68,East,90,0.0,0.0,64,0.00,,,0.00,WUHU216HW,2013-09-12 16:13:00,
2013-09-12 12:18:00,87.0,73.8,29.68,ESE,113,0.0,0.0,65,0.00,,,0.00,WUHU216HW,2013-09-12 16:18:00,
2013-09-12 12:23:00,87.9,74.2,29.68,ESE,113,0.0,0.0,64,0.00,,,0.00,WUHU216HW,2013-09-12 16:23:00,
2013-09-12 12:28:00,88.1,73.5,29.68,ENE,68,0.0,0.0,62,0.00,,,0.00,WUHU216HW,2013-09-12 16:28:00,
2013-09-12 12:32:00,55.9,52.7,29.78,NE,45,0.0,0.0,90,0.00,,,0.00,WUHU216HW,2013-09-12 16:32:00,
2013-09-12 12:33:00,88.3,74.1,29.68,ENE,68,0.0,0.0,63,0.00,,,0.00,WUHU216HW,2013-09-12 16:33:00,
2013-09-12 12:34:00,55.9,52.7,29.79,NE,45,0.0,0.0,90,0.00,,,0.00,WUHU216HW,2013-09-12 16:34:00,
2013-09-12 12:35:00,55.9,52.7,29.79,NE,45,0.0,0.0,90,0.00,,,0.00,WUHU216HW,2013-09-12 16:35:00,
2013-09-12 12:38:00,89.2,74.5,29.68,NE,45,0.0,0.0,62,0.00,,,0.00,WUHU216HW,2013-09-12 16:38:00,
2013-09-12 12:39:00,55.9,52.7,29.79,NE,45,0.0,0.0,90,0.00,,,0.00,WUHU216HW,2013-09-12 16:39:00,
2013-09-12 12:40:00,55.9,52.7,29.79,NE,45,0.0,0.0,90,0.00,,,0.00,WUHU216HW,2013-09-12 16:40:00,
2013-09-12 12:41:00,55.9,52.7,29.79,NE,45,0.0,0.0,90,0.00,,,0.00,WUHU216HW,2013-09-12 16:41:00,
2013-09-12 12:42:00,55.9,52.7,29.79,NE,45,0.0,0.0,90,0.00,,,0.00,WUHU216HW,2013-09-12 16:42:00,
2013-09-12 12:43:00,89.2,74.5,29.67,ENE,68,0.0,0.0,61,0.00,,,0.00,WUHU216HW,2013-09-12 16:43:00,
2013-09-12 12:44:00,55.9,52.7,29.79,NE,45,0.0,0.0,90,0.00,,,0.00,WUHU216HW,2013-09-12 16:44:00,
2013-09-12 12:46:00,55.9,52.7,29.79,NE,45,0.0,0.0,90,0.00,,,0.00,WUHU216HW,2013-09-12 16:46:00,
2013-09-12 12:47:00,55.9,52.7,29.79,NE,45,0.0,0.0,90,0.00,,,0.00,WUHU216HW,2013-09-12 16:47:00,
2013-09-12 12:48:00,89.4,74.2,29.66,East,90,0.0,0.0,60,0.00,,,0.00,WUHU216HW,2013-09-12 16:48:00,
2013-09-12 12:49:00,56.1,53.2,29.79,NE,45,0.0,0.0,90,0.00,,,0.00,WUHU216HW,2013-09-12 16:49:00,
2013-09-12 12:50:00,56.1,53.2,29.79,NE,45,0.0,0.0,90,0.00,,,0.00,WUHU216HW,2013-09-12 16:50:00,
2013-09-12 12:51:00,56.1,53.2,29.79,NE,45,0.0,0.0,90,0.00,,,0.00,WUHU216HW,2013-09-12 16:51:00,
2013-09-12 12:52:00,56.1,53.2,29.79,NE,45,0.0,0.0,90,0.00,,,0.00,WUHU216HW,2013-09-12 16:52:00,
2013-09-12 12:53:00,89.4,73.7,29.66,SW,225,0.0,0.0,60,0.00,,,0.00,WUHU216HW,2013-09-12 16:53:00,
2013-09-12 12:54:00,56.1,53.2,29.79,NE,45,0.0,0.0,90,0.00,,,0.00,WUHU216HW,2013-09-12 16:54:00,
2013-09-12 12:55:00,56.1,53.2,29.79,NE,45,0.0,0.0,90,0.00,,,0.00,WUHU216HW,2013-09-12 16:55:00,
2013-09-12 12:56:00,56.1,53.2,29.79,NE,45,0.0,0.0,90,0.00,,,0.00,WUHU216HW,2013-09-12 16:56:00,
2013-09-12 12:57:00,56.1,53.2,29.79,NE,45,0.0,0.0,90,0.00,,,0.00,WUHU216HW,2013-09-12 16:57:00,
2013-09-12 12:58:00,56.1,53.2,29.79,NE,45,0.0,0.0,90,0.00,,,0.00,WUHU216HW,2013-09-12 16:58:00,
2013-09-12 12:59:00,89.7,74.1,29.66,SE,135,0.0,0.0,60,0.00,,,0.00,WUHU216HW,2013-09-12 16:59:00,
2013-09-12 13:01:00,56.1,53.2,29.79,NE,45,0.0,0.0,90,0.00,,,0.00,WUHU216HW,2013-09-12 17:01:00,
2013-09-12 13:02:00,56.1,53.2,29.79,NE,45,0.0,0.0,90,0.00,,,0.00,WUHU216HW,2013-09-12 17:02:00,
2013-09-12 13:04:00,89.9,74.2,29.66,ESE,113,0.0,0.0,60,0.00,,,0.00,WUHU216HW,2013-09-12 17:04:00,
2013-09-12 13:08:00,56.1,53.2,29.79,NE,45,0.0,0.0,90,0.00,,,0.00,WUHU216HW,2013-09-12 17:08:00,
2013-09-12 13:09:00,90.6,73.2,29.65,SE,135,0.0,0.0,57,0.00,,,0.00,WUHU216HW,2013-09-12 17:09:00,
2013-09-12 13:10:00,56.1,53.2,29.79,NE,45,0.0,0.0,90,0.00,,,0.00,WUHU216HW,2013-09-12 17:10:00,
2013-09-12 13:12:00,56.1,53.2,29.79,NE,45,0.0,0.0,90,0.00,,,0.00,WUHU216HW,2013-09-12 17:12:00,
2013-09-12 13:13:00,56.1,53.2,29.79,NE,45,0.0,0.0,90,0.00,,,0.00,WUHU216HW,2013-09-12 17:13:00,
2013-09-12 13:14:00,90.1,73.3,29.66,NNE,23,0.0,0.0,59,0.00,,,0.00,WUHU216HW,2013-09-12 17:14:00,
2013-09-12 13:17:00,56.1,53.2,29.79,NE,45,0.0,0.0,90,0.00,,,0.00,WUHU216HW,2013-09-12 17:17:00,
2013-09-12 13:19:00,91.0,74.6,29.65,NNE,23,0.0,0.0,60,0.00,,,0.00,WUHU216HW,2013-09-12 17:19:00,
2013-09-12 13:20:00,56.1,53.2,29.79,NE,45,0.0,0.0,90,0.00,,,0.00,WUHU216HW,2013-09-12 17:20:00,
2013-09-12 13:24:00,91.5,74.6,29.65,NNE,23,0.0,0.0,58,0.00,,,0.00,WUHU216HW,2013-09-12 17:24:00,
2013-09-12 13:29:00,91.7,74.8,29.64,NW,315,0.0,0.0,57,0.00,,,0.00,WUHU216HW,2013-09-12 17:29:00,
2013-09-12 13:34:00,92.1,74.0,29.65,East,90,0.0,0.0,57,0.00,,,0.00,WUHU216HW,2013-09-12 17:34:00,
2013-09-12 13:39:00,92.4,74.9,29.64,East,90,0.0,0.0,57,0.00,,,0.00,WUHU216HW,2013-09-12 17:39:00,
2013-09-12 13:44:00,92.8,74.7,29.64,North,0,0.0,0.0,56,0.00,,,0.00,WUHU216HW,2013-09-12 17:44:00,
2013-09-12 13:50:00,92.8,74.7,29.64,NNW,338,3.5,3.5,56,0.00,,,0.00,WUHU216HW,2013-09-12 17:50:00,
2013-09-12 13:55:00,92.8,74.7,29.64,NE,45,0.0,3.5,56,0.00,,,0.00,WUHU216HW,2013-09-12 17:55:00,
2013-09-12 14:00:00,92.3,74.2,29.64,SE,135,0.0,3.5,56,0.00,,,0.00,WUHU216HW,2013-09-12 18:00:00,
2013-09-12 14:05:00,92.4,74.9,29.63,SSE,158,0.0,0.0,56,0.00,,,0.00,WUHU216HW,2013-09-12 18:05:00,
2013-09-12 14:10:00,92.4,74.9,29.63,SW,225,0.0,0.0,56,0.00,,,0.00,WUHU216HW,2013-09-12 18:10:00,
2013-09-12 14:15:00,92.8,74.2,29.63,WSW,248,0.0,0.0,56,0.00,,,0.00,WUHU216HW,2013-09-12 18:15:00,
2013-09-12 14:20:00,92.8,74.2,29.62,NE,45,0.0,0.0,57,0.00,,,0.00,WUHU216HW,2013-09-12 18:20:00,
2013-09-12 14:26:00,92.6,74.0,29.62,NW,315,0.0,0.0,55,0.00,,,0.00,WUHU216HW,2013-09-12 18:26:00,
2013-09-12 14:28:00,56.1,53.2,29.79,NE,45,0.0,0.0,90,0.00,,,0.00,WUHU216HW,2013-09-12 18:28:00,
2013-09-12 14:30:00,56.1,53.2,29.79,NE,45,0.0,0.0,90,0.00,,,0.00,WUHU216HW,2013-09-12 18:30:00,
2013-09-12 14:31:00,92.4,73.8,29.61,North,0,0.0,0.0,56,0.00,,,0.00,WUHU216HW,2013-09-12 18:31:00,
2013-09-12 14:32:00,56.1,53.2,29.79,NE,45,0.0,0.0,90,0.00,,,0.00,WUHU216HW,2013-09-12 18:32:00,
2013-09-12 14:33:00,56.1,53.2,29.79,NE,45,0.0,0.0,90,0.00,,,0.00,WUHU216HW,2013-09-12 18:33:00,
2013-09-12 14:36:00,91.9,73.3,29.61,East,90,0.0,3.3,55,0.00,,,0.00,WUHU216HW,2013-09-12 18:36:00,
2013-09-12 14:41:00,91.5,73.5,29.61,ENE,68,0.0,3.3,56,0.00,,,0.00,WUHU216HW,2013-09-12 18:41:00,
2013-09-12 14:42:00,56.3,53.4,29.80,NE,45,0.0,0.0,90,0.00,,,0.00,WUHU216HW,2013-09-12 18:42:00,
2013-09-12 14:43:00,56.3,53.4,29.80,NE,45,0.0,0.0,90,0.00,,,0.00,WUHU216HW,2013-09-12 18:43:00,
2013-09-12 14:44:00,56.3,53.4,29.80,NE,45,0.0,0.0,90,0.00,,,0.00,WUHU216HW,2013-09-12 18:44:00,
2013-09-12 14:45:00,56.3,53.4,29.80,NE,45,0.0,0.0,90,0.00,,,0.00,WUHU216HW,2013-09-12 18:45:00,
2013-09-12 14:46:00,91.5,73.5,29.61,ENE,68,0.0,0.0,57,0.00,,,0.00,WUHU216HW,2013-09-12 18:46:00,
2013-09-12 14:48:00,56.3,53.4,29.80,NE,45,0.0,0.0,90,0.00,,,0.00,WUHU216HW,2013-09-12 18:48:00,
2013-09-12 14:49:00,56.3,53.4,29.79,NE,45,0.0,0.0,90,0.00,,,0.00,WUHU216HW,2013-09-12 18:49:00,
2013-09-12 14:51:00,91.0,73.6,29.60,East,90,0.0,0.0,57,0.00,,,0.00,WUHU216HW,2013-09-12 18:51:00,
2013-09-12 14:52:00,56.3,53.4,29.79,NE,45,0.0,0.0,90,0.00,,,0.00,WUHU216HW,2013-09-12 18:52:00,
2013-09-12 14:53:00,56.3,53.4,29.79,NE,45,0.0,0.0,90,0.00,,,0.00,WUHU216HW,2013-09-12 18:53:00,
2013-09-12 14:54:00,56.3,53.4,29.79,NE,45,0.0,0.0,90,0.00,,,0.00,WUHU216HW,2013-09-12 18:54:00,
2013-09-12 14:56:00,90.3,73.5,29.60,ENE,68,0.0,0.0,58,0.00,,,0.00,WUHU216HW,2013-09-12 18:56:00,
2013-09-12 15:01:00,90.1,72.8,29.60,SE,135,0.0,0.0,58,0.00,,,0.00,WUHU216HW,2013-09-12 19:01:00,
2013-09-12 15:04:00,56.3,53.4,29.80,NE,45,0.0,0.0,90,0.00,,,0.00,WUHU216HW,2013-09-12 19:04:00,
2013-09-12 15:05:00,56.3,53.4,29.80,NE,45,0.0,0.0,90,0.00,,,0.00,WUHU216HW,2013-09-12 19:05:00,
2013-09-12 15:06:00,89.7,73.0,29.59,West,270,0.0,0.0,59,0.00,,,0.00,WUHU216HW,2013-09-12 19:06:00,
2013-09-12 15:08:00,56.3,53.4,29.79,NE,45,0.0,0.0,90,0.00,,,0.00,WUHU216HW,2013-09-12 19:08:00,
2013-09-12 15:09:00,56.3,53.4,29.79,NE,45,0.0,0.0,90,0.00,,,0.00,WUHU216HW,2013-09-12 19:09:00,
2013-09-12 15:11:00,56.3,53.4,29.79,NE,45,0.0,0.0,90,0.00,,,0.00,WUHU216HW,2013-09-12 19:11:00,
2013-09-12 15:12:00,89.9,73.7,29.59,NNW,338,0.0,0.0,59,0.00,,,0.00,WUHU216HW,2013-09-12 19:12:00,
2013-09-12 15:13:00,56.3,53.4,29.80,NE,45,0.0,0.0,90,0.00,,,0.00,WUHU216HW,2013-09-12 19:13:00,
2013-09-12 15:17:00,89.9,73.7,29.59,North,0,0.0,0.0,57,0.00,,,0.00,WUHU216HW,2013-09-12 19:17:00,
2013-09-12 15:18:00,56.3,53.4,29.80,NE,45,0.0,0.0,90,0.00,,,0.00,WUHU216HW,2013-09-12 19:18:00,
2013-09-12 15:19:00,56.3,53.4,29.80,NE,45,0.0,0.0,90,0.00,,,0.00,WUHU216HW,2013-09-12 19:19:00,
2013-09-12 15:22:00,89.7,73.0,29.59,North,0,0.0,0.0,58,0.00,,,0.00,WUHU216HW,2013-09-12 19:22:00,
2013-09-12 15:24:00,56.1,53.2,29.80,NE,45,0.0,0.0,90,0.00,,,0.00,WUHU216HW,2013-09-12 19:24:00,
2013-09-12 15:25:00,56.1,53.2,29.80,NE,45,0.0,0.0,90,0.00,,,0.00,WUHU216HW,2013-09-12 19:25:00,
2013-09-12 15:26:00,56.1,53.2,29.80,NE,45,0.0,0.0,90,0.00,,,0.00,WUHU216HW,2013-09-12 19:26:00,
2013-09-12 15:27:00,89.4,72.7,29.58,WNW,293,0.0,0.0,59,0.00,,,0.00,WUHU216HW,2013-09-12 19:27:00,
2013-09-12 15:28:00,56.3,53.4,29.80,NE,45,0.0,0.0,90,0.00,,,0.00,WUHU216HW,2013-09-12 19:28:00,
2013-09-12 15:30:00,56.3,53.4,29.80,NE,45,0.0,0.0,90,0.00,,,0.00,WUHU216HW,2013-09-12 19:30:00,
2013-09-12 15:32:00,89.2,72.5,29.58,WNW,293,0.0,0.0,59,0.00,,,0.00,WUHU216HW,2013-09-12 19:32:00,
2013-09-12 15:33:00,56.3,53.4,29.81,NE,45,0.0,0.0,90,0.00,,,0.00,WUHU216HW,2013-09-12 19:33:00,
2013-09-12 15:34:00,56.3,53.4,29.81,NE,45,0.0,0.0,90,0.00,,,0.00,WUHU216HW,2013-09-12 19:34:00,
2013-09-12 15:35:00,56.3,53.4,29.81,NE,45,0.0,0.0,90,0.00,,,0.00,WUHU216HW,2013-09-12 19:35:00,
2013-09-12 15:37:00,88.7,73.1,29.57,WNW,293,0.0,0.0,60,0.00,,,0.00,WUHU216HW,2013-09-12 19:37:00,
2013-09-12 15:39:00,56.3,53.4,29.81,NE,45,0.0,0.0,90,0.00,,,0.00,WUHU216HW,2013-09-12 19:39:00,
2013-09-12 15:41:00,56.3,53.4,29.81,NE,45,0.0,0.0,90,0.00,,,0.00,WUHU216HW,2013-09-12 19:41:00,
2013-09-12 15:42:00,88.5,72.9,29.57,WNW,293,0.0,0.0,61,0.00,,,0.00,WUHU216HW,2013-09-12 19:42:00,
2013-09-12 15:45:00,56.4,53.6,29.81,NE,45,0.0,0.0,90,0.00,,,0.00,WUHU216HW,2013-09-12 19:45:00,
2013-09-12 15:47:00,88.5,72.9,29.56,NW,315,0.0,0.0,61,0.00,,,0.00,WUHU216HW,2013-09-12 19:47:00,
2013-09-12 15:50:00,56.4,53.6,29.81,NE,45,0.0,0.0,90,0.00,,,0.00,WUHU216HW,2013-09-12 19:50:00,
2013-09-12 15:52:00,88.5,72.9,29.56,NW,315,0.0,0.0,60,0.00,,,0.00,WUHU216HW,2013-09-12 19:52:00,
2013-09-12 15:58:00,88.8,73.2,29.56,SE,135,0.0,0.0,60,0.00,,,0.00,WUHU216HW,2013-09-12 19:58:00,
2013-09-12 16:03:00,89.2,73.0,29.56,SE,135,0.0,0.0,59,0.00,,,0.00,WUHU216HW,2013-09-12 20:03:00,
2013-09-12 16:05:00,56.8,53.9,29.82,NE,45,0.0,0.0,90,0.00,,,0.00,WUHU216HW,2013-09-12 20:05:00,
2013-09-12 16:06:00,56.8,53.9,29.81,NE,45,0.0,0.0,90,0.00,,,0.00,WUHU216HW,2013-09-12 20:06:00,
2013-09-12 16:07:00,56.8,53.9,29.81,NE,45,0.0,0.0,90,0.00,,,0.00,WUHU216HW,2013-09-12 20:07:00,
2013-09-12 16:08:00,89.0,72.9,29.56,SE,135,0.0,0.0,59,0.00,,,0.00,WUHU216HW,2013-09-12 20:08:00,
2013-09-12 16:09:00,56.8,53.9,29.81,NE,45,0.0,0.0,90,0.00,,,0.00,WUHU216HW,2013-09-12 20:09:00,
2013-09-12 16:10:00,56.8,53.9,29.81,NE,45,0.0,0.0,90,0.00,,,0.00,WUHU216HW,2013-09-12 20:10:00,
2013-09-12 16:11:00,56.8,53.9,29.81,NE,45,0.0,0.0,90,0.00,,,0.00,WUHU216HW,2013-09-12 20:11:00,
2013-09-12 16:12:00,56.8,53.9,29.81,NE,45,0.0,0.0,90,0.00,,,0.00,WUHU216HW,2013-09-12 20:12:00,
2013-09-12 16:13:00,88.8,72.7,29.56,WSW,248,0.0,0.0,60,0.00,,,0.00,WUHU216HW,2013-09-12 20:13:00,
2013-09-12 16:14:00,57.0,54.1,29.81,NE,45,0.0,0.0,90,0.00,,,0.00,WUHU216HW,2013-09-12 20:14:00,
2013-09-12 16:15:00,57.0,54.1,29.81,NE,45,0.0,0.0,90,0.00,,,0.00,WUHU216HW,2013-09-12 20:15:00,
2013-09-12 16:16:00,57.0,54.1,29.81,NE,45,0.0,0.0,90,0.00,,,0.00,WUHU216HW,2013-09-12 20:16:00,
2013-09-12 16:17:00,57.0,54.1,29.81,NE,45,0.0,0.0,90,0.00,,,0.00,WUHU216HW,2013-09-12 20:17:00,
2013-09-12 16:18:00,88.7,72.5,29.56,WSW,248,0.0,0.0,59,0.00,,,0.00,WUHU216HW,2013-09-12 20:18:00,
2013-09-12 16:19:00,57.0,54.1,29.81,NE,45,0.0,0.0,90,0.00,,,0.00,WUHU216HW,2013-09-12 20:19:00,
2013-09-12 16:20:00,57.2,54.3,29.81,NE,45,0.0,0.0,90,0.00,,,0.00,WUHU216HW,2013-09-12 20:20:00,
2013-09-12 16:21:00,57.2,54.3,29.82,NE,45,0.0,0.0,90,0.00,,,0.00,WUHU216HW,2013-09-12 20:21:00,
2013-09-12 16:22:00,57.2,54.3,29.81,NE,45,0.0,0.0,90,0.00,,,0.00,WUHU216HW,2013-09-12 20:22:00,
2013-09-12 16:23:00,88.5,72.4,29.55,WSW,248,0.0,0.0,59,0.00,,,0.00,WUHU216HW,2013-09-12 20:23:00,
2013-09-12 16:24:00,57.3,54.5,29.82,NE,45,0.0,0.0,90,0.00,,,0.00,WUHU216HW,2013-09-12 20:24:00,
2013-09-12 16:25:00,57.3,54.5,29.81,NE,45,0.0,0.0,90,0.00,,,0.00,WUHU216HW,2013-09-12 20:25:00,
2013-09-12 16:26:00,57.3,54.5,29.81,NE,45,0.0,0.0,90,0.00,,,0.00,WUHU216HW,2013-09-12 20:26:00,
2013-09-12 16:27:00,57.3,54.5,29.81,NE,45,0.0,0.0,90,0.00,,,0.00,WUHU216HW,2013-09-12 20:27:00,
2013-09-12 16:28:00,57.3,54.5,29.81,NE,45,0.0,0.0,90,0.00,,,0.00,WUHU216HW,2013-09-12 20:28:00,
2013-09-12 16:29:00,88.5,72.4,29.55,WSW,248,0.0,0.0,60,0.00,,,0.00,WUHU216HW,2013-09-12 20:29:00,
2013-09-12 16:30:00,57.3,54.5,29.81,NE,45,0.0,0.0,90,0.00,,,0.00,WUHU216HW,2013-09-12 20:30:00,
2013-09-12 16:31:00,57.3,54.5,29.81,NE,45,0.0,0.0,90,0.00,,,0.00,WUHU216HW,2013-09-12 20:31:00,
2013-09-12 16:32:00,57.3,54.5,29.81,NE,45,0.0,0.0,90,0.00,,,0.00,WUHU216HW,2013-09-12 20:32:00,
2013-09-12 16:33:00,57.5,54.6,29.82,NE,45,0.0,0.0,90,0.00,,,0.00,WUHU216HW,2013-09-12 20:33:00,
2013-09-12 16:34:00,88.3,72.8,29.55,WSW,248,0.0,0.0,60,0.00,,,0.00,WUHU216HW,2013-09-12 20:34:00,
2013-09-12 16:35:00,57.5,54.6,29.82,NE,45,0.0,0.0,90,0.00,,,0.00,WUHU216HW,2013-09-12 20:35:00,
2013-09-12 16:36:00,57.5,54.6,29.82,NE,45,0.0,0.0,90,0.00,,,0.00,WUHU216HW,2013-09-12 20:36:00,
2013-09-12 16:37:00,57.5,54.6,29.82,NE,45,0.0,0.0,89,0.00,,,0.00,WUHU216HW,2013-09-12 20:37:00,
2013-09-12 16:38:00,57.5,54.6,29.82,NE,45,0.0,0.0,89,0.00,,,0.00,WUHU216HW,2013-09-12 20:38:00,
2013-09-12 16:39:00,88.1,72.1,29.55,WSW,248,0.0,0.0,59,0.00,,,0.00,WUHU216HW,2013-09-12 20:39:00,
2013-09-12 16:40:00,57.7,54.5,29.82,NE,45,0.0,0.0,89,0.00,,,0.00,WUHU216HW,2013-09-12 20:40:00,
2013-09-12 16:41:00,57.7,54.5,29.82,NE,45,0.0,0.0,89,0.00,,,0.00,WUHU216HW,2013-09-12 20:41:00,
2013-09-12 16:42:00,57.7,54.5,29.82,NE,45,0.0,0.0,89,0.00,,,0.00,WUHU216HW,2013-09-12 20:42:00,
2013-09-12 16:43:00,57.7,54.5,29.82,NE,45,0.0,0.0,89,0.00,,,0.00,WUHU216HW,2013-09-12 20:43:00,
2013-09-12 16:44:00,87.9,71.9,29.54,WSW,248,0.0,0.0,59,0.00,,,0.00,WUHU216HW,2013-09-12 20:44:00,
2013-09-12 16:45:00,57.7,54.5,29.82,NE,45,0.0,0.0,89,0.00,,,0.00,WUHU216HW,2013-09-12 20:45:00,
2013-09-12 16:46:00,57.7,54.5,29.82,NE,45,0.0,0.0,89,0.00,,,0.00,WUHU216HW,2013-09-12 20:46:00,
2013-09-12 16:47:00,57.7,54.5,29.82,NE,45,0.0,0.0,89,0.00,,,0.00,WUHU216HW,2013-09-12 20:47:00,
2013-09-12 16:49:00,87.9,71.9,29.54,WSW,248,0.0,0.0,60,0.00,,,0.00,WUHU216HW,2013-09-12 20:49:00,
2013-09-12 16:54:00,87.6,72.1,29.54,SSW,203,0.0,0.0,60,0.00,,,0.00,WUHU216HW,2013-09-12 20:54:00,
2013-09-12 16:59:00,87.4,71.9,29.54,SSW,203,0.0,0.0,61,0.00,,,0.00,WUHU216HW,2013-09-12 20:59:00,
2013-09-12 17:04:00,87.4,71.9,29.54,SSW,203,0.0,0.0,61,0.00,,,0.00,WUHU216HW,2013-09-12 21:04:00,
2013-09-12 17:09:00,87.0,72.0,29.54,SSW,203,0.0,0.0,61,0.00,,,0.00,WUHU216HW,2013-09-12 21:09:00,
2013-09-12 17:15:00,87.0,72.0,29.54,SSW,203,0.0,0.0,62,0.00,,,0.00,WUHU216HW,2013-09-12 21:15:00,
2013-09-12 17:20:00,86.7,72.1,29.53,SSW,203,0.0,0.0,62,0.00,,,0.00,WUHU216HW,2013-09-12 21:20:00,
2013-09-12 17:25:00,86.5,71.9,29.54,SSW,203,0.0,0.0,62,0.00,,,0.00,WUHU216HW,2013-09-12 21:25:00,
2013-09-12 17:28:00,59.5,55.6,29.82,NE,45,0.0,0.0,87,0.00,,,0.00,WUHU216HW,2013-09-12 21:28:00,
2013-09-12 17:29:00,59.5,55.6,29.82,NE,45,0.0,0.0,87,0.00,,,0.00,WUHU216HW,2013-09-12 21:29:00,
2013-09-12 17:30:00,86.3,72.2,29.53,SSW,203,0.0,0.0,63,0.00,,,0.00,WUHU216HW,2013-09-12 21:30:00,
2013-09-12 17:31:00,59.5,55.6,29.82,NE,45,0.0,0.0,87,0.00,,,0.00,WUHU216HW,2013-09-12 21:31:00,
2013-09-12 17:32:00,59.5,55.6,29.82,NE,45,0.0,0.0,87,0.00,,,0.00,WUHU216HW,2013-09-12 21:32:00,
2013-09-12 17:33:00,59.7,55.8,29.81,NE,45,0.0,0.0,87,0.00,,,0.00,WUHU216HW,2013-09-12 21:33:00,
2013-09-12 17:34:00,59.7,55.8,29.81,NE,45,0.0,0.0,87,0.00,,,0.00,WUHU216HW,2013-09-12 21:34:00,
2013-09-12 17:35:00,86.1,72.1,29.53,SSW,203,0.0,0.0,63,0.00,,,0.00,WUHU216HW,2013-09-12 21:35:00,
2013-09-12 17:37:00,59.7,55.8,29.82,NE,45,0.0,0.0,87,0.00,,,0.00,WUHU216HW,2013-09-12 21:37:00,
2013-09-12 17:38:00,59.9,56.0,29.82,NE,45,0.0,0.0,87,0.00,,,0.00,WUHU216HW,2013-09-12 21:38:00,
2013-09-12 17:39:00,60.0,56.2,29.81,NE,45,0.0,0.0,87,0.00,,,0.00,WUHU216HW,2013-09-12 21:39:00,
2013-09-12 17:40:00,86.1,72.1,29.53,SSW,203,0.0,0.0,64,0.00,,,0.00,WUHU216HW,2013-09-12 21:40:00,
2013-09-12 17:41:00,60.0,56.2,29.81,NE,45,0.0,0.0,87,0.00,,,0.00,WUHU216HW,2013-09-12 21:41:00,
2013-09-12 17:45:00,86.1,73.0,29.53,SSW,203,0.0,0.0,65,0.00,,,0.00,WUHU216HW,2013-09-12 21:45:00,
2013-09-12 17:50:00,85.2,72.1,29.54,South,180,0.0,0.0,65,0.00,,,0.00,WUHU216HW,2013-09-12 21:50:00,
2013-09-12 17:55:00,85.1,72.0,29.53,South,180,0.0,0.0,64,0.00,,,0.00,WUHU216HW,2013-09-12 21:55:00,
2013-09-12 18:00:00,84.9,71.3,29.53,South,180,0.0,0.0,64,0.00,,,0.00,WUHU216HW,2013-09-12 22:00:00,
2013-09-12 18:05:00,84.5,70.5,29.53,South,180,0.0,0.0,63,0.00,,,0.00,WUHU216HW,2013-09-12 22:05:00,
2013-09-12 18:11:00,84.3,70.4,29.54,South,180,0.0,0.0,63,0.00,,,0.00,WUHU216HW,2013-09-12 22:11:00,
2013-09-12 18:16:00,84.3,70.4,29.54,South,180,0.0,0.0,63,0.00,,,0.00,WUHU216HW,2013-09-12 22:16:00,
2013-09-12 18:18:00,62.7,57.1,29.82,ENE,68,0.0,0.0,82,0.00,,,0.00,WUHU216HW,2013-09-12 22:18:00,
2013-09-12 18:19:00,62.7,57.1,29.82,ENE,68,0.0,0.0,82,0.00,,,0.00,WUHU216HW,2013-09-12 22:19:00,
2013-09-12 18:21:00,84.0,70.5,29.54,South,180,0.0,0.0,64,0.00,,,0.00,WUHU216HW,2013-09-12 22:21:00,
2013-09-12 18:22:00,62.7,57.1,29.82,ENE,68,0.0,0.0,82,0.00,,,0.00,WUHU216HW,2013-09-12 22:22:00,
2013-09-12 18:23:00,62.9,57.3,29.82,ENE,68,0.0,0.0,82,0.00,,,0.00,WUHU216HW,2013-09-12 22:23:00,
2013-09-12 18:24:00,62.9,57.3,29.82,ENE,68,0.0,0.0,82,0.00,,,0.00,WUHU216HW,2013-09-12 22:24:00,
2013-09-12 18:26:00,83.8,70.3,29.54,South,180,0.0,0.0,64,0.00,,,0.00,WUHU216HW,2013-09-12 22:26:00,
2013-09-12 18:28:00,63.3,57.0,29.81,NE,45,0.0,0.0,80,0.00,,,0.00,WUHU216HW,2013-09-12 22:28:00,
2013-09-12 18:29:00,63.3,57.0,29.81,NE,45,0.0,0.0,80,0.00,,,0.00,WUHU216HW,2013-09-12 22:29:00,
2013-09-12 18:30:00,63.3,57.0,29.81,NE,45,0.0,0.0,80,0.00,,,0.00,WUHU216HW,2013-09-12 22:30:00,
2013-09-12 18:31:00,83.8,70.3,29.55,East,90,0.0,0.0,66,0.00,,,0.00,WUHU216HW,2013-09-12 22:31:00,
2013-09-12 18:33:00,63.6,57.0,29.81,NE,45,0.0,0.0,79,0.00,,,0.00,WUHU216HW,2013-09-12 22:33:00,
2013-09-12 18:36:00,83.3,71.1,29.55,SE,135,0.0,0.0,67,0.00,,,0.00,WUHU216HW,2013-09-12 22:36:00,
2013-09-12 18:37:00,63.8,57.2,29.82,NE,45,0.0,0.0,79,0.00,,,0.00,WUHU216HW,2013-09-12 22:37:00,
2013-09-12 18:38:00,63.8,57.2,29.82,NE,45,0.0,0.0,79,0.00,,,0.00,WUHU216HW,2013-09-12 22:38:00,
2013-09-12 18:39:00,63.8,57.2,29.82,NE,45,0.0,0.0,79,0.00,,,0.00,WUHU216HW,2013-09-12 22:39:00,
2013-09-12 18:40:00,64.0,57.0,29.81,NE,45,0.0,0.0,78,0.00,,,0.00,WUHU216HW,2013-09-12 22:40:00,
2013-09-12 18:41:00,83.1,70.9,29.55,South,180,0.0,0.0,68,0.00,,,0.00,WUHU216HW,2013-09-12 22:41:00,
2013-09-12 18:43:00,64.2,57.2,29.81,NE,45,0.0,0.0,78,0.00,,,0.00,WUHU216HW,2013-09-12 22:43:00,
2013-09-12 18:44:00,64.4,57.7,29.81,SSE,158,0.0,0.0,79,0.00,,,0.00,WUHU216HW,2013-09-12 22:44:00,
2013-09-12 18:45:00,64.4,57.7,29.81,SSE,158,0.0,0.0,79,0.00,,,0.00,WUHU216HW,2013-09-12 22:45:00,
2013-09-12 18:46:00,82.5,70.8,29.56,SE,135,0.0,0.0,69,0.00,,,0.00,WUHU216HW,2013-09-12 22:46:00,
2013-09-12 18:47:00,64.5,57.5,29.81,SSE,158,0.0,0.0,78,0.00,,,0.00,WUHU216HW,2013-09-12 22:47:00,
2013-09-12 18:48:00,64.7,57.7,29.81,SE,135,0.0,0.0,78,0.00,,,0.00,WUHU216HW,2013-09-12 22:48:00,
2013-09-12 18:49:00,64.7,57.7,29.82,SE,135,0.0,0.0,78,0.00,,,0.00,WUHU216HW,2013-09-12 22:49:00,
2013-09-12 18:51:00,82.0,70.8,29.56,SE,135,0.0,0.0,69,0.00,,,0.00,WUHU216HW,2013-09-12 22:51:00,
2013-09-12 18:52:00,64.9,57.9,29.81,East,90,0.0,0.0,78,0.00,,,0.00,WUHU216HW,2013-09-12 22:52:00,
2013-09-12 18:53:00,64.9,57.9,29.81,NE,45,0.0,0.0,78,0.00,,,0.00,WUHU216HW,2013-09-12 22:53:00,
2013-09-12 18:54:00,64.9,57.9,29.81,NE,45,0.0,0.0,78,0.00,,,0.00,WUHU216HW,2013-09-12 22:54:00,
2013-09-12 18:55:00,65.1,57.7,29.81,NE,45,0.0,0.0,77,0.00,,,0.00,WUHU216HW,2013-09-12 22:55:00,
2013-09-12 18:56:00,81.6,70.5,29.56,SE,135,0.0,0.0,69,0.00,,,0.00,WUHU216HW,2013-09-12 22:56:00,
2013-09-12 18:57:00,65.3,57.8,29.81,NE,45,0.0,0.0,77,0.00,,,0.00,WUHU216HW,2013-09-12 22:57:00,
2013-09-12 18:58:00,65.3,57.8,29.81,NE,45,0.0,0.0,77,0.00,,,0.00,WUHU216HW,2013-09-12 22:58:00,
2013-09-12 19:01:00,81.1,70.0,29.55,SE,135,0.0,0.0,69,0.00,,,0.00,WUHU216HW,2013-09-12 23:01:00,
2013-09-12 19:03:00,65.8,57.6,29.81,ESE,113,0.0,0.0,75,0.00,,,0.00,WUHU216HW,2013-09-12 23:03:00,
2013-09-12 19:04:00,65.8,57.6,29.81,ESE,113,0.0,0.0,75,0.00,,,0.00,WUHU216HW,2013-09-12 23:04:00,
2013-09-12 19:05:00,65.8,57.6,29.81,ESE,113,0.0,0.0,75,0.00,,,0.00,WUHU216HW,2013-09-12 23:05:00,
2013-09-12 19:07:00,81.1,70.0,29.55,SE,135,0.0,0.0,69,0.00,,,0.00,WUHU216HW,2013-09-12 23:07:00,
2013-09-12 19:08:00,65.8,57.6,29.81,ESE,113,0.0,0.0,75,0.00,,,0.00,WUHU216HW,2013-09-12 23:08:00,
2013-09-12 19:09:00,65.8,57.6,29.81,ESE,113,0.0,0.0,75,0.00,,,0.00,WUHU216HW,2013-09-12 23:09:00,
2013-09-12 19:10:00,66.0,57.4,29.81,ESE,113,0.0,0.0,74,0.00,,,0.00,WUHU216HW,2013-09-12 23:10:00,
2013-09-12 19:12:00,80.9,69.8,29.55,SE,135,0.0,0.0,69,0.00,,,0.00,WUHU216HW,2013-09-12 23:12:00,
2013-09-12 19:13:00,66.3,57.8,29.81,ESE,113,0.0,0.0,74,0.00,,,0.00,WUHU216HW,2013-09-12 23:13:00,
2013-09-12 19:14:00,66.5,57.6,29.81,ESE,113,0.0,0.0,73,0.00,,,0.00,WUHU216HW,2013-09-12 23:14:00,
2013-09-12 19:15:00,66.5,57.6,29.81,ESE,113,0.0,0.0,73,0.00,,,0.00,WUHU216HW,2013-09-12 23:15:00,
2013-09-12 19:16:00,66.7,57.4,29.81,ESE,113,0.0,0.0,72,0.00,,,0.00,WUHU216HW,2013-09-12 23:16:00,
2013-09-12 19:17:00,80.7,70.1,29.55,SE,135,0.0,0.0,70,0.00,,,0.00,WUHU216HW,2013-09-12 23:17:00,
2013-09-12 19:18:00,66.7,57.4,29.81,ESE,113,0.0,0.0,72,0.00,,,0.00,WUHU216HW,2013-09-12 23:18:00,
2013-09-12 19:19:00,66.9,57.5,29.80,ESE,113,0.0,0.0,72,0.00,,,0.00,WUHU216HW,2013-09-12 23:19:00,
2013-09-12 19:20:00,66.9,57.5,29.80,ESE,113,0.0,0.0,72,0.00,,,0.00,WUHU216HW,2013-09-12 23:20:00,
2013-09-12 19:21:00,66.9,57.5,29.81,ESE,113,0.0,0.0,72,0.00,,,0.00,WUHU216HW,2013-09-12 23:21:00,
2013-09-12 19:22:00,80.4,69.8,29.55,SE,135,0.0,0.0,70,0.00,,,0.00,WUHU216HW,2013-09-12 23:22:00,
2013-09-12 19:27:00,80.2,70.0,29.55,SE,135,0.0,0.0,71,0.00,,,0.00,WUHU216HW,2013-09-12 23:27:00,
2013-09-12 19:32:00,80.2,70.0,29.54,SE,135,0.0,0.0,71,0.00,,,0.00,WUHU216HW,2013-09-12 23:32:00,
2013-09-12 19:37:00,79.8,70.0,29.55,SE,135,0.0,0.0,72,0.00,,,0.00,WUHU216HW,2013-09-12 23:37:00,
2013-09-12 19:42:00,79.7,69.8,29.55,SE,135,0.0,0.0,72,0.00,,,0.00,WUHU216HW,2013-09-12 23:42:00,
2013-09-12 19:47:00,79.5,69.6,29.55,SE,135,0.0,0.0,72,0.00,,,0.00,WUHU216HW,2013-09-12 23:47:00,
2013-09-12 19:53:00,79.3,69.9,29.55,SE,135,0.0,0.0,73,0.00,,,0.00,WUHU216HW,2013-09-12 23:53:00,
2013-09-12 19:54:00,69.4,58.3,29.80,East,90,0.0,0.0,66,0.00,,,0.00,WUHU216HW,2013-09-12 23:54:00,
2013-09-12 19:55:00,69.6,57.7,29.80,East,90,0.0,0.0,66,0.00,,,0.00,WUHU216HW,2013-09-12 23:55:00,
2013-09-12 19:58:00,79.1,70.1,29.55,SE,135,0.0,0.0,74,0.00,,,0.00,WUHU216HW,2013-09-12 23:58:00,
2013-09-12 19:59:00,69.6,57.7,29.80,East,90,0.0,0.0,64,0.00,,,0.00,WUHU216HW,2013-09-12 23:59:00,
2013-09-12 20:00:00,69.6,57.7,29.80,East,90,0.0,0.0,65,0.00,,,0.00,WUHU216HW,2013-09-13 00:00:00,
2013-09-12 20:01:00,69.6,57.7,29.80,East,90,0.0,0.0,65,0.00,,,0.00,WUHU216HW,2013-09-13 00:01:00,
2013-09-12 20:02:00,69.9,58.0,29.80,East,90,0.0,0.0,66,0.00,,,0.00,WUHU216HW,2013-09-13 00:02:00,
2013-09-12 20:03:00,78.9,70.3,29.55,SE,135,0.0,0.0,75,0.00,,,0.00,WUHU216HW,2013-09-13 00:03:00,
2013-09-12 20:04:00,69.9,58.0,29.80,East,90,0.0,0.0,66,0.00,,,0.00,WUHU216HW,2013-09-13 00:04:00,
2013-09-12 20:05:00,69.9,58.0,29.80,East,90,0.0,0.0,66,0.00,,,0.00,WUHU216HW,2013-09-13 00:05:00,
2013-09-12 20:06:00,70.3,58.4,29.80,East,90,0.0,0.0,66,0.00,,,0.00,WUHU216HW,2013-09-13 00:06:00,
2013-09-12 20:07:00,70.3,58.4,29.80,East,90,0.0,0.0,66,0.00,,,0.00,WUHU216HW,2013-09-13 00:07:00,
2013-09-12 20:08:00,78.8,70.1,29.55,SE,135,0.0,0.0,75,0.00,,,0.00,WUHU216HW,2013-09-13 00:08:00,
2013-09-12 20:09:00,70.3,58.4,29.79,East,90,0.0,0.0,67,0.00,,,0.00,WUHU216HW,2013-09-13 00:09:00,
2013-09-12 20:10:00,70.3,58.4,29.80,NE,45,0.0,0.0,65,0.00,,,0.00,WUHU216HW,2013-09-13 00:10:00,
2013-09-12 20:12:00,70.3,58.4,29.80,NW,315,0.0,0.0,65,0.00,,,0.00,WUHU216HW,2013-09-13 00:12:00,
2013-09-12 20:13:00,78.8,70.1,29.55,SE,135,0.0,0.0,75,0.00,,,0.00,WUHU216HW,2013-09-13 00:13:00,
2013-09-12 20:14:00,70.3,58.4,29.79,ENE,68,0.0,0.0,65,0.00,,,0.00,WUHU216HW,2013-09-13 00:14:00,
2013-09-12 20:16:00,70.3,58.4,29.80,ENE,68,0.0,0.0,65,0.00,,,0.00,WUHU216HW,2013-09-13 00:16:00,
2013-09-12 20:18:00,78.6,69.9,29.55,SE,135,0.0,0.0,75,0.00,,,0.00,WUHU216HW,2013-09-13 00:18:00,
2013-09-12 20:19:00,70.5,58.5,29.79,ENE,68,0.0,0.0,66,0.00,,,0.00,WUHU216HW,2013-09-13 00:19:00,
2013-09-12 20:20:00,70.5,58.5,29.79,ENE,68,0.0,0.0,66,0.00,,,0.00,WUHU216HW,2013-09-13 00:20:00,
2013-09-12 20:23:00,78.6,69.9,29.55,SE,135,0.0,0.0,76,0.00,,,0.00,WUHU216HW,2013-09-13 00:23:00,
2013-09-12 20:24:00,70.8,58.9,29.79,ENE,68,0.0,0.0,66,0.00,,,0.00,WUHU216HW,2013-09-13 00:24:00,
2013-09-12 20:29:00,78.6,69.9,29.54,SE,135,0.0,0.0,76,0.00,,,0.00,WUHU216HW,2013-09-13 00:29:00,
2013-09-12 20:30:00,71.2,59.2,29.79,ENE,68,0.0,0.0,64,0.00,,,0.00,WUHU216HW,2013-09-13 00:30:00,
2013-09-12 20:31:00,71.2,59.2,29.79,ENE,68,0.0,0.0,64,0.00,,,0.00,WUHU216HW,2013-09-13 00:31:00,
2013-09-12 20:32:00,71.2,59.2,29.79,NW,315,0.0,0.0,64,0.00,,,0.00,WUHU216HW,2013-09-13 00:32:00,
2013-09-12 20:33:00,71.2,59.2,29.79,NW,315,0.0,0.0,64,0.00,,,0.00,WUHU216HW,2013-09-13 00:33:00,
2013-09-12 20:34:00,78.4,70.6,29.54,SE,135,0.0,0.0,77,0.00,,,0.00,WUHU216HW,2013-09-13 00:34:00,
2013-09-12 20:35:00,71.4,59.0,29.79,NNW,338,0.0,0.0,65,0.00,,,0.00,WUHU216HW,2013-09-13 00:35:00,
2013-09-12 20:36:00,71.6,58.7,29.79,North,0,0.0,0.0,64,0.00,,,0.00,WUHU216HW,2013-09-13 00:36:00,
2013-09-12 20:37:00,71.6,58.7,29.79,North,0,0.0,0.0,64,0.00,,,0.00,WUHU216HW,2013-09-13 00:37:00,
2013-09-12 20:39:00,78.0,70.6,29.55,SE,135,0.0,0.0,78,0.00,,,0.00,WUHU216HW,2013-09-13 00:39:00,
2013-09-12 20:40:00,71.9,59.9,29.79,WNW,293,0.0,0.0,66,0.00,,,0.00,WUHU216HW,2013-09-13 00:40:00,
2013-09-12 20:41:00,72.1,58.8,29.79,NW,315,0.0,0.0,63,0.00,,,0.00,WUHU216HW,2013-09-13 00:41:00,
2013-09-12 20:42:00,72.1,58.8,29.78,NW,315,0.0,0.0,63,0.00,,,0.00,WUHU216HW,2013-09-13 00:42:00,
2013-09-12 20:44:00,78.0,70.6,29.55,SE,135,0.0,0.0,78,0.00,,,0.00,WUHU216HW,2013-09-13 00:44:00,
2013-09-12 20:49:00,77.9,70.4,29.54,SE,135,0.0,0.0,78,0.00,,,0.00,WUHU216HW,2013-09-13 00:49:00,
2013-09-12 20:50:00,71.2,58.8,29.78,ENE,68,0.0,0.0,65,0.00,,,0.00,WUHU216HW,2013-09-13 00:50:00,
2013-09-12 20:51:00,70.8,59.3,29.78,ENE,68,0.0,0.0,67,0.00,,,0.00,WUHU216HW,2013-09-13 00:51:00,
2013-09-12 20:52:00,70.8,59.3,29.77,ENE,68,0.0,0.0,67,0.00,,,0.00,WUHU216HW,2013-09-13 00:52:00,
2013-09-12 20:53:00,71.2,59.6,29.77,ENE,68,0.0,0.0,67,0.00,,,0.00,WUHU216HW,2013-09-13 00:53:00,
2013-09-12 20:54:00,77.7,70.2,29.55,SE,135,0.0,0.0,78,0.00,,,0.00,WUHU216HW,2013-09-13 00:54:00,
2013-09-12 20:56:00,71.4,59.4,29.77,NE,45,0.0,0.0,66,0.00,,,0.00,WUHU216HW,2013-09-13 00:56:00,
2013-09-12 20:57:00,71.4,59.4,29.77,NE,45,0.0,0.0,66,0.00,,,0.00,WUHU216HW,2013-09-13 00:57:00,
2013-09-12 20:58:00,71.7,59.3,29.77,NNE,23,0.0,0.0,65,0.00,,,0.00,WUHU216HW,2013-09-13 00:58:00,
2013-09-12 20:59:00,77.5,70.4,29.55,SE,135,0.0,0.0,79,0.00,,,0.00,WUHU216HW,2013-09-13 00:59:00,
2013-09-12 21:00:00,72.3,59.8,29.77,NNE,23,0.0,0.0,65,0.00,,,0.00,WUHU216HW,2013-09-13 01:00:00,
2013-09-12 21:01:00,72.3,59.8,29.76,NNE,23,0.0,0.0,65,0.00,,,0.00,WUHU216HW,2013-09-13 01:01:00,
2013-09-12 21:02:00,72.6,59.3,29.76,NNE,23,0.0,0.0,63,0.00,,,0.00,WUHU216HW,2013-09-13 01:02:00,
2013-09-12 21:03:00,72.6,59.3,29.76,NNE,23,0.0,0.0,63,0.00,,,0.00,WUHU216HW,2013-09-13 01:03:00,
2013-09-12 21:04:00,77.5,70.4,29.55,SE,135,0.0,0.0,79,0.00,,,0.00,WUHU216HW,2013-09-13 01:04:00,
2013-09-12 21:05:00,73.2,59.8,29.76,NE,45,0.8,0.8,63,0.00,,,0.00,WUHU216HW,2013-09-13 01:05:00,
2013-09-12 21:06:00,73.2,59.8,29.76,NE,45,0.0,0.8,63,0.00,,,0.00,WUHU216HW,2013-09-13 01:06:00,
2013-09-12 21:07:00,73.2,59.8,29.76,NE,45,0.0,0.8,63,0.00,,,0.00,WUHU216HW,2013-09-13 01:07:00,
2013-09-12 21:08:00,73.2,59.8,29.76,NE,45,0.0,0.8,63,0.00,,,0.00,WUHU216HW,2013-09-13 01:08:00,
2013-09-12 21:09:00,77.5,70.4,29.55,SE,135,0.0,0.0,79,0.00,,,0.00,WUHU216HW,2013-09-13 01:09:00,
2013-09-12 21:10:00,73.7,60.3,29.76,NE,45,0.0,0.8,63,0.00,,,0.00,WUHU216HW,2013-09-13 01:10:00,
2013-09-12 21:11:00,74.3,60.4,29.76,NNE,23,0.0,0.8,62,0.00,,,0.00,WUHU216HW,2013-09-13 01:11:00,
2013-09-12 21:12:00,74.3,60.4,29.76,NNE,23,0.0,0.8,62,0.00,,,0.00,WUHU216HW,2013-09-13 01:12:00,
2013-09-12 21:13:00,74.8,60.0,29.76,NNE,23,0.0,0.8,60,0.00,,,0.00,WUHU216HW,2013-09-13 01:13:00,
2013-09-12 21:14:00,77.3,70.7,29.55,SE,135,0.0,0.0,80,0.00,,,0.00,WUHU216HW,2013-09-13 01:14:00,
2013-09-12 21:15:00,74.6,60.3,29.76,NNE,23,0.0,0.8,61,0.00,,,0.00,WUHU216HW,2013-09-13 01:15:00,
2013-09-12 21:16:00,74.4,59.7,29.76,NNE,23,0.0,0.0,60,0.00,,,0.00,WUHU216HW,2013-09-13 01:16:00,
2013-09-12 21:17:00,74.4,59.7,29.76,NNE,23,0.0,0.0,60,0.00,,,0.00,WUHU216HW,2013-09-13 01:17:00,
2013-09-12 21:18:00,74.4,59.7,29.76,NNE,23,0.0,0.0,60,0.00,,,0.00,WUHU216HW,2013-09-13 01:18:00,
2013-09-12 21:19:00,77.3,70.7,29.55,SE,135,0.0,0.0,80,0.00,,,0.00,WUHU216HW,2013-09-13 01:19:00,
2013-09-12 21:24:00,77.0,70.7,29.55,SE,135,0.0,0.0,81,0.00,,,0.00,WUHU216HW,2013-09-13 01:24:00,
2013-09-12 21:29:00,76.8,70.5,29.55,SE,135,0.0,0.0,80,0.00,,,0.00,WUHU216HW,2013-09-13 01:29:00,
2013-09-12 21:34:00,77.1,70.5,29.55,SE,135,0.0,0.0,80,0.00,,,0.00,WUHU216HW,2013-09-13 01:34:00,
2013-09-12 21:37:00,76.1,60.2,29.75,SW,225,0.0,0.0,58,0.00,,,0.00,WUHU216HW,2013-09-13 01:37:00,
2013-09-12 21:39:00,76.4,61.0,29.75,North,0,3.1,3.1,59,0.00,,,0.00,WUHU216HW,2013-09-13 01:39:00,
2013-09-12 21:40:00,77.1,70.5,29.55,SE,135,0.0,0.0,80,0.00,,,0.00,WUHU216HW,2013-09-13 01:40:00,
2013-09-12 21:44:00,76.6,61.7,29.75,North,0,0.0,3.1,60,0.00,,,0.00,WUHU216HW,2013-09-13 01:44:00,
2013-09-12 21:45:00,76.8,70.1,29.55,SE,135,0.0,0.0,80,0.00,,,0.00,WUHU216HW,2013-09-13 01:45:00,
2013-09-12 21:47:00,76.6,61.7,29.74,North,0,0.0,3.1,60,0.00,,,0.00,WUHU216HW,2013-09-13 01:47:00,
2013-09-12 21:48:00,76.6,61.7,29.74,North,0,0.0,3.1,60,0.00,,,0.00,WUHU216HW,2013-09-13 01:48:00,
2013-09-12 21:50:00,76.8,70.1,29.55,SE,135,0.0,0.0,80,0.00,,,0.00,WUHU216HW,2013-09-13 01:50:00,
2013-09-12 21:52:00,77.1,61.7,29.74,North,0,2.9,2.9,59,0.00,,,0.00,WUHU216HW,2013-09-13 01:52:00,
2013-09-12 21:53:00,77.1,61.7,29.74,NNE,23,0.0,2.9,57,0.00,,,0.00,WUHU216HW,2013-09-13 01:53:00,
2013-09-12 21:55:00,76.8,70.1,29.55,SE,135,0.0,0.0,80,0.00,,,0.00,WUHU216HW,2013-09-13 01:55:00,
2013-09-12 21:56:00,77.3,61.4,29.74,NW,315,0.0,2.9,58,0.00,,,0.00,WUHU216HW,2013-09-13 01:56:00,
2013-09-12 21:57:00,77.5,61.5,29.74,NW,315,0.0,2.9,58,0.00,,,0.00,WUHU216HW,2013-09-13 01:57:00,
2013-09-12 22:00:00,76.6,70.0,29.55,SE,135,0.0,0.0,81,0.00,,,0.00,WUHU216HW,2013-09-13 02:00:00,
2013-09-12 22:05:00,76.2,70.0,29.55,SE,135,0.0,0.0,81,0.00,,,0.00,WUHU216HW,2013-09-13 02:05:00,
2013-09-12 22:06:00,77.1,60.7,29.74,WSW,248,0.0,0.0,57,0.00,,,0.00,WUHU216HW,2013-09-13 02:06:00,
2013-09-12 22:09:00,76.2,59.9,29.73,WSW,248,0.0,0.0,57,0.00,,,0.00,WUHU216HW,2013-09-13 02:09:00,
2013-09-12 22:10:00,76.2,70.0,29.54,SE,135,0.0,0.0,82,0.00,,,0.00,WUHU216HW,2013-09-13 02:10:00,
2013-09-12 22:11:00,75.9,60.5,29.73,WSW,248,0.0,0.0,59,0.00,,,0.00,WUHU216HW,2013-09-13 02:11:00,
2013-09-12 22:14:00,75.9,60.5,29.73,WSW,248,0.0,0.0,59,0.00,,,0.00,WUHU216HW,2013-09-13 02:14:00,
2013-09-12 22:15:00,76.1,70.2,29.54,SE,135,0.0,0.0,82,0.00,,,0.00,WUHU216HW,2013-09-13 02:15:00,
2013-09-12 22:17:00,76.2,60.9,29.73,NE,45,0.0,0.0,59,0.00,,,0.00,WUHU216HW,2013-09-13 02:17:00,
2013-09-12 22:18:00,76.2,60.9,29.73,NE,45,0.0,0.0,59,0.00,,,0.00,WUHU216HW,2013-09-13 02:18:00,
2013-09-12 22:19:00,76.6,61.2,29.73,NE,45,0.0,0.0,59,0.00,,,0.00,WUHU216HW,2013-09-13 02:19:00,
2013-09-12 22:20:00,75.9,70.0,29.54,SE,135,0.0,0.0,82,0.00,,,0.00,WUHU216HW,2013-09-13 02:20:00,
2013-09-12 22:21:00,76.6,61.2,29.73,NE,45,0.0,0.0,59,0.00,,,0.00,WUHU216HW,2013-09-13 02:21:00,
2013-09-12 22:22:00,76.4,61.0,29.73,NE,45,0.0,0.0,59,0.00,,,0.00,WUHU216HW,2013-09-13 02:22:00,
2013-09-12 22:23:00,76.2,60.9,29.73,North,0,0.0,0.0,59,0.00,,,0.00,WUHU216HW,2013-09-13 02:23:00,
2013-09-12 22:24:00,76.2,60.9,29.73,North,0,0.0,0.0,59,0.00,,,0.00,WUHU216HW,2013-09-13 02:24:00,
2013-09-12 22:25:00,75.7,69.9,29.54,SE,135,0.0,0.0,82,0.00,,,0.00,WUHU216HW,2013-09-13 02:25:00,
2013-09-12 22:26:00,75.9,60.5,29.73,North,0,0.0,0.0,59,0.00,,,0.00,WUHU216HW,2013-09-13 02:26:00,
2013-09-12 22:27:00,75.9,60.5,29.73,North,0,0.0,0.0,59,0.00,,,0.00,WUHU216HW,2013-09-13 02:27:00,
2013-09-12 22:28:00,75.9,60.5,29.73,North,0,0.0,0.0,59,0.00,,,0.00,WUHU216HW,2013-09-13 02:28:00,
2013-09-12 22:30:00,75.7,69.9,29.54,SE,135,0.0,0.0,82,0.00,,,0.00,WUHU216HW,2013-09-13 02:30:00,
2013-09-12 22:33:00,75.7,60.4,29.73,North,0,0.0,0.0,60,0.00,,,0.00,WUHU216HW,2013-09-13 02:33:00,
2013-09-12 22:34:00,75.5,61.2,29.72,North,0,0.0,0.0,61,0.00,,,0.00,WUHU216HW,2013-09-13 02:34:00,
2013-09-12 22:35:00,75.7,69.9,29.54,SE,135,0.0,0.0,82,0.00,,,0.00,WUHU216HW,2013-09-13 02:35:00,
2013-09-12 22:36:00,75.3,59.5,29.72,NNW,338,0.0,0.0,58,0.00,,,0.00,WUHU216HW,2013-09-13 02:36:00,
2013-09-12 22:37:00,75.3,59.5,29.72,NNW,338,0.0,0.0,58,0.00,,,0.00,WUHU216HW,2013-09-13 02:37:00,
2013-09-12 22:38:00,75.3,59.5,29.72,NNW,338,0.0,0.0,58,0.00,,,0.00,WUHU216HW,2013-09-13 02:38:00,
2013-09-12 22:41:00,75.5,69.7,29.54,SE,135,0.0,0.0,82,0.00,,,0.00,WUHU216HW,2013-09-13 02:41:00,
2013-09-12 22:45:00,75.3,69.9,29.53,SE,135,0.0,0.0,83,0.00,,,0.00,WUHU216HW,2013-09-13 02:45:00,
2013-09-12 22:51:00,75.3,69.9,29.53,SE,135,0.0,0.0,83,0.00,,,0.00,WUHU216HW,2013-09-13 02:51:00,
2013-09-12 22:53:00,74.8,59.5,29.72,NW,315,0.0,0.0,59,0.00,,,0.00,WUHU216HW,2013-09-13 02:53:00,
2013-09-12 22:54:00,74.8,59.5,29.72,NW,315,0.0,0.0,60,0.00,,,0.00,WUHU216HW,2013-09-13 02:54:00,
2013-09-12 22:55:00,74.8,59.5,29.72,NW,315,0.0,0.0,60,0.00,,,0.00,WUHU216HW,2013-09-13 02:55:00,
2013-09-12 22:56:00,75.3,69.9,29.53,SE,135,0.0,0.0,83,0.00,,,0.00,WUHU216HW,2013-09-13 02:56:00,
2013-09-12 22:57:00,74.8,59.5,29.72,WNW,293,0.0,0.0,61,0.00,,,0.00,WUHU216HW,2013-09-13 02:57:00,
2013-09-12 22:58:00,74.8,59.5,29.72,WNW,293,3.1,3.1,60,0.00,,,0.00,WUHU216HW,2013-09-13 02:58:00,
2013-09-12 23:01:00,75.3,69.9,29.54,SE,135,0.0,0.0,83,0.00,,,0.00,WUHU216HW,2013-09-13 03:01:00,
2013-09-12 23:02:00,75.2,60.4,29.72,WNW,293,0.0,3.1,60,0.00,,,0.00,WUHU216HW,2013-09-13 03:02:00,
2013-09-12 23:03:00,75.2,60.4,29.71,WNW,293,0.0,3.1,60,0.00,,,0.00,WUHU216HW,2013-09-13 03:03:00,
2013-09-12 23:05:00,75.3,60.6,29.71,WNW,293,0.0,3.1,60,0.00,,,0.00,WUHU216HW,2013-09-13 03:05:00,
2013-09-12 23:06:00,75.3,69.9,29.54,SE,135,0.0,0.0,83,0.00,,,0.00,WUHU216HW,2013-09-13 03:06:00,
2013-09-12 23:07:00,75.5,60.7,29.71,NW,315,1.3,3.1,60,0.00,,,0.00,WUHU216HW,2013-09-13 03:07:00,
2013-09-12 23:08:00,75.5,60.7,29.71,NW,315,1.3,3.1,60,0.00,,,0.00,WUHU216HW,2013-09-13 03:08:00,
2013-09-12 23:09:00,75.7,60.9,29.71,NNW,338,0.0,3.1,60,0.00,,,0.00,WUHU216HW,2013-09-13 03:09:00,
2013-09-12 23:11:00,75.3,69.9,29.54,SE,135,0.0,0.0,82,0.00,,,0.00,WUHU216HW,2013-09-13 03:11:00,
2013-09-12 23:16:00,75.3,69.9,29.54,SE,135,0.0,0.0,82,0.00,,,0.00,WUHU216HW,2013-09-13 03:16:00,
2013-09-12 23:21:00,75.3,69.9,29.53,SE,135,0.0,0.0,83,0.00,,,0.00,WUHU216HW,2013-09-13 03:21:00,
2013-09-12 23:27:00,75.2,69.7,29.53,SE,135,0.0,0.0,83,0.00,,,0.00,WUHU216HW,2013-09-13 03:27:00,
2013-09-12 23:32:00,75.2,69.7,29.53,SE,135,0.0,0.0,83,0.00,,,0.00,WUHU216HW,2013-09-13 03:32:00,
2013-09-12 23:37:00,75.0,69.5,29.53,SE,135,0.0,0.0,83,0.00,,,0.00,WUHU216HW,2013-09-13 03:37:00,
2013-09-12 23:38:00,75.3,59.5,29.70,North,0,0.0,1.7,60,0.00,,,0.00,WUHU216HW,2013-09-13 03:38:00,
2013-09-12 23:40:00,75.3,59.5,29.70,North,0,0.0,0.0,60,0.00,,,0.00,WUHU216HW,2013-09-13 03:40:00,
2013-09-12 23:42:00,75.0,69.5,29.53,SE,135,0.0,0.0,83,0.00,,,0.00,WUHU216HW,2013-09-13 03:42:00,
2013-09-12 23:44:00,75.3,59.5,29.70,North,0,0.0,0.0,60,0.00,,,0.00,WUHU216HW,2013-09-13 03:44:00,
2013-09-12 23:46:00,75.3,59.5,29.70,North,0,0.0,0.0,59,0.00,,,0.00,WUHU216HW,2013-09-13 03:46:00,
2013-09-12 23:47:00,75.0,69.5,29.53,SE,135,0.0,0.0,84,0.00,,,0.00,WUHU216HW,2013-09-13 03:47:00,
2013-09-12 23:49:00,75.2,60.8,29.70,North,0,0.0,0.0,61,0.00,,,0.00,WUHU216HW,2013-09-13 03:49:00,
2013-09-12 23:50:00,75.2,60.8,29.70,North,0,0.0,0.0,61,0.00,,,0.00,WUHU216HW,2013-09-13 03:50:00,
2013-09-12 23:52:00,75.0,69.5,29.53,SE,135,0.0,0.0,84,0.00,,,0.00,WUHU216HW,2013-09-13 03:52:00,
2013-09-12 23:53:00,75.0,60.6,29.70,North,0,0.0,0.0,61,0.00,,,0.00,WUHU216HW,2013-09-13 03:53:00,
2013-09-12 23:55:00,75.0,60.6,29.70,North,0,0.0,0.0,61,0.00,,,0.00,WUHU216HW,2013-09-13 03:55:00,
2013-09-12 23:56:00,74.8,60.5,29.69,North,0,0.0,0.0,61,0.00,,,0.00,WUHU216HW,2013-09-13 03:56:00,
2013-09-12 23:57:00,74.8,69.7,29.53,SE,135,0.0,0.0,84,0.00,,,0.00,WUHU216HW,2013-09-13 03:57:00,
2013-09-12 23:58:00,74.6,60.3,29.69,North,0,0.0,0.0,61,0.00,,,0.00,WUHU216HW,2013-09-13 03:58:00,
2013-09-12 23:59:00,74.6,60.3,29.69,North,0,0.0,0.0,61,0.00,,,0.00,WUHU216HW,2013-09-13 03:59:00,